| time (UTC) | temp F | wind direction | speed knots | gust knots | rain 1hr in | rain 24hr in | rain mn in | humidity % | barometer mb |
| 20260906105520 | 72 | 329 | 0.0 | 0.0 | 0.00 | 0.10 | 0.00 | 99 | 1017.6 |
| 20260906105422 | 72 | 329 | 0.0 | 0.0 | 0.00 | 0.10 | 0.00 | 99 | 1017.6 |
| 20260906105321 | 72 | 329 | 0.0 | 0.0 | 0.00 | 0.10 | 0.00 | 99 | 1017.6 |
| 20260906105221 | 72 | 329 | 0.0 | 0.0 | 0.00 | 0.10 | 0.00 | 99 | 1017.5 |
| 20260906105021 | 72 | 329 | 0.0 | 0.0 | 0.00 | 0.10 | 0.00 | 99 | 1017.5 |
| 20260906104920 | 72 | 329 | 0.0 | 0.0 | 0.00 | 0.10 | 0.00 | 99 | 1017.6 |
| 20260906104821 | 72 | 329 | 0.0 | 0.0 | 0.00 | 0.10 | 0.00 | 99 | 1017.5 |
| 20260906104720 | 72 | 329 | 0.0 | 0.0 | 0.00 | 0.10 | 0.00 | 99 | 1017.6 |
| 20260906104521 | 72 | 329 | 0.0 | 0.0 | 0.00 | 0.10 | 0.00 | 99 | 1017.5 |
| 20260906104416 | 72 | 329 | 0.0 | 0.0 | 0.00 | 0.10 | 0.00 | 99 | 1017.5 |
| 20260906104316 | 72 | 329 | 0.0 | 0.0 | 0.00 | 0.10 | 0.00 | 99 | 1017.5 |
| 20260906104216 | 72 | 329 | 0.0 | 0.0 | 0.00 | 0.10 | 0.00 | 99 | 1017.5 |
| 20260906104017 | 72 | 330 | 0.0 | 0.0 | 0.00 | 0.10 | 0.00 | 99 | 1017.4 |
| 20260906103916 | 72 | 330 | 0.0 | 0.0 | 0.00 | 0.10 | 0.00 | 99 | 1017.4 |
| 20260906103818 | 72 | 330 | 0.0 | 0.0 | 0.00 | 0.10 | 0.00 | 99 | 1017.3 |
| 20260906103718 | 72 | 330 | 0.0 | 0.0 | 0.00 | 0.10 | 0.00 | 99 | 1017.4 |
| 20260906103518 | 72 | 330 | 0.0 | 0.0 | 0.00 | 0.10 | 0.00 | 99 | 1017.4 |
| 20260906103417 | 72 | 330 | 0.0 | 0.0 | 0.00 | 0.10 | 0.00 | 99 | 1017.5 |
| 20260906103317 | 72 | 330 | 0.0 | 0.0 | 0.00 | 0.10 | 0.00 | 99 | 1017.4 |
| 20260906103229 | 72 | 330 | 0.0 | 0.0 | 0.00 | 0.10 | 0.00 | 99 | 1017.5 |
| 20260906103017 | 72 | 330 | 0.0 | 0.0 | 0.00 | 0.10 | 0.00 | 99 | 1017.5 |
| 20260906102918 | 72 | 329 | 0.0 | 0.0 | 0.00 | 0.10 | 0.00 | 99 | 1017.5 |
| 20260906102816 | 72 | 329 | 0.0 | 0.0 | 0.00 | 0.10 | 0.00 | 99 | 1017.5 |
| 20260906102718 | 72 | 330 | 0.0 | 0.0 | 0.00 | 0.10 | 0.00 | 99 | 1017.6 |
| 20260906102513 | 71 | 329 | 0.0 | 0.0 | 0.00 | 0.10 | 0.00 | 99 | 1017.5 |
| 20260906102412 | 71 | 330 | 0.0 | 0.0 | 0.00 | 0.10 | 0.00 | 99 | 1017.5 |
| 20260906102312 | 71 | 329 | 0.0 | 0.0 | 0.00 | 0.10 | 0.00 | 99 | 1017.5 |
| 20260906102212 | 72 | 329 | 0.0 | 0.0 | 0.00 | 0.10 | 0.00 | 99 | 1017.5 |
| 20260906102014 | 71 | 330 | 0.0 | 0.0 | 0.00 | 0.10 | 0.00 | 99 | 1017.5 |
| 20260906101912 | 71 | 330 | 0.0 | 0.0 | 0.00 | 0.10 | 0.00 | 99 | 1017.5 |
| 20260906101813 | 71 | 330 | 0.0 | 0.0 | 0.00 | 0.10 | 0.00 | 99 | 1017.4 |
| 20260906101712 | 71 | 327 | 0.0 | 0.0 | 0.00 | 0.10 | 0.00 | 100 | 1017.4 |
| 20260906101513 | 71 | 327 | 0.0 | 0.0 | 0.00 | 0.10 | 0.00 | 100 | 1017.3 |
| 20260906101413 | 72 | 327 | 0.0 | 0.0 | 0.00 | 0.10 | 0.00 | 100 | 1017.3 |
| 20260906101312 | 71 | 327 | 0.0 | 0.9 | 0.00 | 0.10 | 0.00 | 100 | 1017.3 |
| 20260906101232 | 71 | 327 | 0.0 | 0.9 | 0.00 | 0.10 | 0.00 | 100 | 1017.2 |
| 20260906101217 | 71 | 327 | 0.0 | 0.9 | 0.00 | 0.10 | 0.00 | 100 | 1017.2 |
| 20260906101013 | 71 | 327 | 0.0 | 0.9 | 0.00 | 0.10 | 0.00 | 100 | 1017.2 |
| 20260906100914 | 71 | 327 | 0.0 | 0.9 | 0.00 | 0.10 | 0.00 | 100 | 1017.2 |
| 20260906100812 | 71 | 327 | 0.0 | 0.9 | 0.00 | 0.10 | 0.00 | 100 | 1017.2 |
| 20260906100714 | 71 | 327 | 0.0 | 0.9 | 0.00 | 0.10 | 0.00 | 100 | 1017.0 |
| 20260906100608 | 71 | 327 | 0.0 | 0.9 | 0.00 | 0.10 | 0.00 | 100 | 1017.0 |
| 20260906100509 | 71 | 327 | 0.0 | 0.9 | 0.00 | 0.10 | 0.00 | 100 | 1017.0 |
| 20260906100408 | 71 | 333 | 0.0 | 0.9 | 0.00 | 0.10 | 0.00 | 100 | 1016.9 |
| 20260906100308 | 71 | 333 | 0.0 | 0.9 | 0.00 | 0.10 | 0.00 | 100 | 1016.9 |
| 20260906100210 | 71 | 333 | 0.0 | 0.9 | 0.00 | 0.10 | 0.00 | 100 | 1016.8 |
| 20260906100108 | 71 | 333 | 0.0 | 0.9 | 0.00 | 0.10 | 0.00 | 100 | 1016.8 |
| 20260906100012 | 71 | 333 | 0.0 | 0.9 | 0.00 | 0.10 | 0.00 | 100 | 1016.8 |
| 20260906095907 | 71 | 336 | 0.0 | 0.9 | 0.00 | 0.10 | 0.00 | 100 | 1016.7 |
| 20260906095809 | 71 | 336 | 0.0 | 0.9 | 0.00 | 0.10 | 0.00 | 100 | 1016.8 |
| 20260906095728 | 71 | 336 | 0.0 | 0.9 | 0.00 | 0.10 | 0.00 | 100 | 1016.7 |
| 20260906095608 | 71 | 329 | 0.0 | 0.9 | 0.00 | 0.10 | 0.00 | 100 | 1016.8 |
| 20260906095509 | 71 | 329 | 0.0 | 0.9 | 0.00 | 0.10 | 0.00 | 100 | 1016.7 |
| 20260906095408 | 71 | 329 | 0.0 | 0.9 | 0.00 | 0.10 | 0.00 | 100 | 1016.7 |
| 20260906095308 | 71 | 329 | 0.0 | 0.0 | 0.00 | 0.10 | 0.00 | 100 | 1016.7 |
| 20260906095210 | 71 | 329 | 0.0 | 0.0 | 0.00 | 0.10 | 0.00 | 100 | 1016.8 |
| 20260906095109 | 71 | 323 | 0.0 | 0.0 | 0.00 | 0.10 | 0.00 | 100 | 1016.7 |
| 20260906095011 | 71 | 323 | 0.0 | 0.0 | 0.00 | 0.10 | 0.00 | 100 | 1016.8 |
| 20260906094908 | 71 | 323 | 0.0 | 0.0 | 0.00 | 0.10 | 0.00 | 100 | 1016.8 |
| 20260906094810 | 71 | 323 | 0.0 | 0.0 | 0.00 | 0.10 | 0.00 | 100 | 1016.8 |
| 20260906094728 | 71 | 323 | 0.0 | 0.0 | 0.00 | 0.10 | 0.00 | 100 | 1016.8 |
| 20260906094610 | 71 | 323 | 0.0 | 0.0 | 0.00 | 0.10 | 0.00 | 100 | 1016.9 |
| 20260906094508 | 71 | 323 | 0.0 | 0.0 | 0.00 | 0.10 | 0.00 | 100 | 1016.8 |
| 20260906094406 | 71 | 323 | 0.0 | 0.0 | 0.00 | 0.10 | 0.00 | 100 | 1016.9 |
| 20260906094308 | 71 | 323 | 0.0 | 0.0 | 0.00 | 0.10 | 0.00 | 100 | 1016.8 |
| 20260906094204 | 71 | 323 | 0.0 | 0.9 | 0.00 | 0.10 | 0.00 | 100 | 1016.9 |
| 20260906094104 | 71 | 323 | 0.0 | 0.9 | 0.00 | 0.10 | 0.00 | 100 | 1016.9 |
| 20260906093902 | 71 | 323 | 0.0 | 0.9 | 0.00 | 0.10 | 0.00 | 100 | 1016.9 |
| 20260906093802 | 71 | 322 | 0.0 | 0.9 | 0.00 | 0.10 | 0.00 | 100 | 1017.0 |
| 20260906093702 | 71 | 323 | 0.0 | 1.7 | 0.00 | 0.10 | 0.00 | 100 | 1017.0 |
| 20260906093601 | 71 | 323 | 0.0 | 1.7 | 0.00 | 0.10 | 0.00 | 100 | 1016.9 |
| 20260906093501 | 71 | 323 | 0.0 | 1.7 | 0.00 | 0.10 | 0.00 | 100 | 1016.9 |
| 20260906093359 | 71 | 323 | 0.0 | 1.7 | 0.00 | 0.10 | 0.00 | 100 | 1016.9 |
| 20260906093259 | 71 | 322 | 0.0 | 1.7 | 0.00 | 0.10 | 0.00 | 100 | 1016.8 |
| 20260906093159 | 71 | 329 | 0.0 | 1.7 | 0.00 | 0.10 | 0.00 | 100 | 1016.8 |
| 20260906093056 | 71 | 328 | 0.0 | 1.7 | 0.00 | 0.10 | 0.00 | 100 | 1016.8 |
| 20260906092957 | 71 | 328 | 0.0 | 1.7 | 0.00 | 0.10 | 0.00 | 100 | 1016.8 |
| 20260906092857 | 71 | 328 | 0.0 | 1.7 | 0.00 | 0.10 | 0.00 | 100 | 1016.8 |
| 20260906092756 | 71 | 4 | 0.0 | 1.7 | 0.00 | 0.10 | 0.00 | 100 | 1016.7 |
| 20260906092656 | 71 | 28 | 0.0 | 0.9 | 0.00 | 0.10 | 0.00 | 100 | 1016.7 |
| 20260906092557 | 71 | 60 | 0.0 | 0.9 | 0.00 | 0.10 | 0.00 | 100 | 1016.7 |
| 20260906092457 | 71 | 60 | 0.0 | 0.9 | 0.00 | 0.10 | 0.00 | 100 | 1016.7 |
| 20260906092356 | 71 | 60 | 0.0 | 0.9 | 0.00 | 0.10 | 0.00 | 100 | 1016.8 |
| 20260906092255 | 71 | 60 | 0.0 | 0.9 | 0.00 | 0.10 | 0.00 | 100 | 1016.7 |
| 20260906092153 | 71 | 60 | 0.0 | 0.9 | 0.00 | 0.10 | 0.00 | 100 | 1016.7 |
| 20260906092050 | 71 | 60 | 0.0 | 0.9 | 0.00 | 0.10 | 0.00 | 100 | 1016.7 |
| 20260906091952 | 71 | 60 | 0.0 | 0.9 | 0.00 | 0.10 | 0.00 | 100 | 1016.7 |
| 20260906091848 | 71 | 60 | 0.0 | 0.0 | 0.00 | 0.10 | 0.00 | 100 | 1016.8 |
| 20260906091750 | 71 | 60 | 0.0 | 0.0 | 0.00 | 0.10 | 0.00 | 100 | 1016.6 |
| 20260906091647 | 71 | 60 | 0.0 | 0.0 | 0.00 | 0.10 | 0.00 | 100 | 1016.6 |
| 20260906091545 | 70 | 60 | 0.0 | 0.0 | 0.00 | 0.10 | 0.00 | 100 | 1016.7 |
| 20260906091446 | 70 | 60 | 0.0 | 0.0 | 0.00 | 0.10 | 0.00 | 100 | 1016.7 |
| 20260906091343 | 70 | 60 | 0.0 | 0.9 | 0.00 | 0.10 | 0.00 | 100 | 1016.7 |
| 20260906091243 | 70 | 60 | 0.0 | 0.9 | 0.00 | 0.10 | 0.00 | 100 | 1016.6 |
| 20260906091140 | 70 | 60 | 0.0 | 0.9 | 0.00 | 0.10 | 0.00 | 100 | 1016.6 |
| 20260906091038 | 70 | 60 | 0.0 | 0.9 | 0.00 | 0.10 | 0.00 | 100 | 1016.7 |
| 20260906090940 | 70 | 60 | 0.0 | 0.9 | 0.00 | 0.10 | 0.00 | 100 | 1016.5 |
| 20260906090837 | 70 | 60 | 0.0 | 0.9 | 0.00 | 0.10 | 0.00 | 100 | 1016.6 |
| 20260906090738 | 70 | 60 | 0.0 | 0.9 | 0.00 | 0.10 | 0.00 | 100 | 1016.5 |
| 20260906090635 | 70 | 60 | 0.0 | 0.9 | 0.00 | 0.10 | 0.00 | 100 | 1016.6 |
| 20260906090532 | 70 | 60 | 0.0 | 0.9 | 0.00 | 0.10 | 0.00 | 100 | 1016.5 |
| 20260906090433 | 70 | 60 | 0.0 | 0.9 | 0.00 | 0.10 | 0.00 | 100 | 1016.5 |
| 20260906090330 | 70 | 60 | 0.0 | 0.9 | 0.00 | 0.10 | 0.00 | 100 | 1016.5 |
| 20260906090231 | 70 | 60 | 0.0 | 0.9 | 0.00 | 0.10 | 0.00 | 100 | 1016.6 |
| 20260906090129 | 70 | 60 | 0.0 | 0.9 | 0.00 | 0.10 | 0.00 | 100 | 1016.5 |
| 20260906090027 | 70 | 98 | 0.0 | 0.0 | 0.00 | 0.10 | 0.00 | 100 | 1016.5 |
| 20260906085928 | 70 | 98 | 0.0 | 0.0 | 0.00 | 0.10 | 0.00 | 100 | 1016.5 |
| 20260906085825 | 70 | 98 | 0.0 | 0.0 | 0.00 | 0.10 | 0.00 | 100 | 1016.5 |
| 20260906085724 | 70 | 98 | 0.0 | 0.0 | 0.00 | 0.10 | 0.00 | 100 | 1016.4 |
| 20260906085623 | 70 | 98 | 0.0 | 0.0 | 0.00 | 0.10 | 0.00 | 100 | 1016.5 |
| 20260906085520 | 70 | 98 | 0.0 | 0.0 | 0.00 | 0.10 | 0.00 | 100 | 1016.5 |
| 20260906085415 | 70 | 98 | 0.0 | 0.0 | 0.00 | 0.10 | 0.00 | 100 | 1016.5 |
| 20260906085315 | 70 | 98 | 0.0 | 0.0 | 0.00 | 0.10 | 0.00 | 100 | 1016.5 |
| 20260906085214 | 70 | 98 | 0.0 | 0.0 | 0.00 | 0.10 | 0.00 | 100 | 1016.5 |
| 20260906085114 | 70 | 98 | 0.0 | 0.0 | 0.00 | 0.10 | 0.00 | 100 | 1016.5 |
| 20260906085014 | 70 | 98 | 0.0 | 0.0 | 0.00 | 0.10 | 0.00 | 100 | 1016.4 |
| 20260906084909 | 70 | 98 | 0.0 | 0.0 | 0.00 | 0.10 | 0.00 | 100 | 1016.5 |
| 20260906084808 | 70 | 98 | 0.0 | 0.0 | 0.00 | 0.10 | 0.00 | 100 | 1016.4 |
| 20260906084708 | 70 | 98 | 0.0 | 0.0 | 0.00 | 0.10 | 0.00 | 100 | 1016.4 |
| 20260906084608 | 70 | 98 | 0.0 | 0.0 | 0.00 | 0.10 | 0.00 | 100 | 1016.4 |
| 20260906084508 | 70 | 98 | 0.0 | 0.0 | 0.00 | 0.10 | 0.00 | 100 | 1016.4 |
| 20260906084408 | 70 | 98 | 0.0 | 0.0 | 0.00 | 0.10 | 0.00 | 100 | 1016.4 |
| 20260906084306 | 70 | 98 | 0.0 | 0.0 | 0.00 | 0.10 | 0.00 | 100 | 1016.4 |
| 20260906084225 | 70 | 98 | 0.0 | 0.0 | 0.00 | 0.10 | 0.00 | 100 | 1016.3 |
| 20260906084205 | 70 | 98 | 0.0 | 0.0 | 0.00 | 0.10 | 0.00 | 100 | 1016.4 |
| 20260906084004 | 70 | 98 | 0.0 | 0.0 | 0.00 | 0.10 | 0.00 | 100 | 1016.3 |
| 20260906083858 | 70 | 98 | 0.0 | 0.0 | 0.00 | 0.10 | 0.00 | 100 | 1016.2 |
| 20260906083759 | 70 | 98 | 0.0 | 0.0 | 0.00 | 0.10 | 0.00 | 100 | 1016.3 |
| 20260906083659 | 70 | 98 | 0.0 | 0.0 | 0.00 | 0.10 | 0.00 | 100 | 1016.3 |
| 20260906083457 | 69 | 98 | 0.0 | 0.0 | 0.00 | 0.10 | 0.00 | 100 | 1016.3 |
| 20260906083358 | 69 | 98 | 0.0 | 0.0 | 0.00 | 0.10 | 0.00 | 100 | 1016.2 |
| 20260906083254 | 69 | 98 | 0.0 | 0.0 | 0.00 | 0.10 | 0.00 | 100 | 1016.2 |
| 20260906083215 | 69 | 98 | 0.0 | 0.0 | 0.00 | 0.10 | 0.00 | 100 | 1016.2 |
| 20260906083054 | 69 | 98 | 0.0 | 0.0 | 0.00 | 0.10 | 0.00 | 100 | 1016.2 |
| 20260906082950 | 69 | 98 | 0.0 | 0.0 | 0.00 | 0.10 | 0.00 | 100 | 1016.2 |
| 20260906082852 | 69 | 98 | 0.0 | 0.0 | 0.00 | 0.10 | 0.00 | 100 | 1016.3 |
| 20260906082749 | 70 | 98 | 0.0 | 0.0 | 0.00 | 0.10 | 0.00 | 100 | 1016.3 |
| 20260906082650 | 70 | 98 | 0.0 | 0.0 | 0.00 | 0.10 | 0.00 | 100 | 1016.3 |
| 20260906082546 | 70 | 98 | 0.0 | 0.0 | 0.00 | 0.10 | 0.00 | 100 | 1016.3 |
| 20260906082444 | 70 | 98 | 0.0 | 0.0 | 0.00 | 0.10 | 0.00 | 100 | 1016.3 |
| 20260906082345 | 70 | 98 | 0.0 | 0.0 | 0.00 | 0.10 | 0.00 | 100 | 1016.3 |
| 20260906082244 | 70 | 98 | 0.0 | 0.0 | 0.00 | 0.10 | 0.00 | 100 | 1016.2 |
| 20260906082144 | 70 | 98 | 0.0 | 0.0 | 0.00 | 0.10 | 0.00 | 100 | 1016.2 |
| 20260906082046 | 70 | 98 | 0.0 | 0.0 | 0.00 | 0.10 | 0.00 | 100 | 1016.3 |
| 20260906081938 | 70 | 98 | 0.0 | 0.0 | 0.00 | 0.10 | 0.00 | 100 | 1016.2 |
| 20260906081832 | 70 | 98 | 0.0 | 0.0 | 0.00 | 0.10 | 0.00 | 100 | 1016.2 |
| 20260906081733 | 70 | 98 | 0.0 | 0.0 | 0.00 | 0.10 | 0.00 | 100 | 1016.2 |
| 20260906081632 | 70 | 98 | 0.0 | 0.0 | 0.00 | 0.10 | 0.00 | 100 | 1016.1 |
| 20260906081533 | 70 | 98 | 0.0 | 0.0 | 0.00 | 0.10 | 0.00 | 100 | 1016.2 |
| 20260906081436 | 70 | 98 | 0.0 | 0.0 | 0.00 | 0.10 | 0.00 | 99 | 1016.1 |
| 20260906081332 | 70 | 98 | 0.0 | 0.0 | 0.00 | 0.10 | 0.00 | 99 | 1016.1 |
| 20260906081231 | 70 | 98 | 0.0 | 0.0 | 0.00 | 0.10 | 0.00 | 99 | 1016.2 |
| 20260906081130 | 70 | 98 | 0.0 | 0.0 | 0.00 | 0.10 | 0.00 | 99 | 1016.1 |
| 20260906080927 | 70 | 98 | 0.0 | 0.0 | 0.00 | 0.10 | 0.00 | 100 | 1016.1 |
| 20260906080827 | 70 | 98 | 0.0 | 0.0 | 0.00 | 0.10 | 0.00 | 99 | 1016.1 |
| 20260906080723 | 70 | 98 | 0.0 | 0.0 | 0.00 | 0.10 | 0.00 | 100 | 1016.1 |
| 20260906080700 | 70 | 98 | 0.0 | 0.0 | 0.00 | 0.10 | 0.00 | 99 | 1016.2 |
| 20260906080523 | 70 | 98 | 0.0 | 0.0 | 0.00 | 0.10 | 0.00 | 99 | 1016.1 |
| 20260906080420 | 70 | 98 | 0.0 | 0.0 | 0.00 | 0.10 | 0.00 | 99 | 1016.1 |
| 20260906080313 | 70 | 98 | 0.0 | 0.0 | 0.00 | 0.10 | 0.00 | 99 | 1016.1 |
| 20260906080215 | 70 | 98 | 0.0 | 0.0 | 0.00 | 0.10 | 0.00 | 99 | 1016.1 |
| 20260906080201 | 70 | 98 | 0.0 | 0.0 | 0.00 | 0.10 | 0.00 | 99 | 1016.1 |
| 20260906080012 | 70 | 98 | 0.0 | 0.0 | 0.00 | 0.10 | 0.00 | 99 | 1016.1 |
| 20260906075913 | 70 | 98 | 0.0 | 0.0 | 0.00 | 0.10 | 0.00 | 99 | 1016.1 |
| 20260906075809 | 70 | 98 | 0.0 | 0.0 | 0.00 | 0.10 | 0.00 | 99 | 1016.1 |
| 20260906075711 | 70 | 98 | 0.0 | 0.0 | 0.00 | 0.10 | 0.00 | 99 | 1016.1 |
| 20260906075606 | 69 | 98 | 0.0 | 0.0 | 0.00 | 0.10 | 0.00 | 99 | 1016.1 |
| 20260906075507 | 70 | 98 | 0.0 | 0.0 | 0.00 | 0.10 | 0.00 | 99 | 1016.1 |
| 20260906075407 | 69 | 98 | 0.0 | 0.0 | 0.00 | 0.10 | 0.00 | 99 | 1016.1 |
| 20260906075306 | 69 | 98 | 0.0 | 0.0 | 0.00 | 0.10 | 0.00 | 99 | 1016.1 |
| 20260906075207 | 70 | 98 | 0.0 | 0.0 | 0.00 | 0.10 | 0.00 | 99 | 1016.1 |
| 20260906075150 | 70 | 98 | 0.0 | 0.0 | 0.00 | 0.10 | 0.00 | 99 | 1016.0 |
| 20260906075004 | 70 | 98 | 0.0 | 0.0 | 0.00 | 0.10 | 0.00 | 99 | 1016.0 |
| 20260906074900 | 70 | 98 | 0.0 | 0.0 | 0.00 | 0.10 | 0.00 | 99 | 1016.0 |
| 20260906074758 | 70 | 98 | 0.0 | 0.0 | 0.00 | 0.10 | 0.00 | 99 | 1016.0 |
| 20260906074658 | 70 | 98 | 0.0 | 0.0 | 0.00 | 0.10 | 0.00 | 99 | 1016.0 |
| 20260906074600 | 70 | 98 | 0.0 | 0.0 | 0.00 | 0.10 | 0.00 | 99 | 1016.1 |
| 20260906074458 | 70 | 98 | 0.0 | 0.0 | 0.00 | 0.10 | 0.00 | 99 | 1016.0 |
| 20260906074355 | 70 | 98 | 0.0 | 0.0 | 0.00 | 0.10 | 0.00 | 99 | 1016.1 |
| 20260906074254 | 70 | 98 | 0.0 | 0.0 | 0.00 | 0.10 | 0.00 | 99 | 1016.1 |
| 20260906074154 | 70 | 98 | 0.0 | 0.0 | 0.00 | 0.10 | 0.00 | 99 | 1016.0 |
| 20260906074138 | 70 | 98 | 0.0 | 0.0 | 0.00 | 0.10 | 0.00 | 99 | 1016.1 |
| 20260906073950 | 70 | 98 | 0.0 | 0.0 | 0.00 | 0.10 | 0.00 | 99 | 1016.0 |
| 20260906073849 | 70 | 98 | 0.0 | 0.0 | 0.00 | 0.10 | 0.00 | 99 | 1016.0 |
| 20260906073749 | 70 | 98 | 0.0 | 0.0 | 0.00 | 0.10 | 0.00 | 99 | 1016.1 |
| 20260906073646 | 70 | 98 | 0.0 | 0.0 | 0.00 | 0.10 | 0.00 | 99 | 1016.0 |
| 20260906073546 | 70 | 98 | 0.0 | 0.0 | 0.00 | 0.10 | 0.00 | 99 | 1016.0 |
| 20260906073445 | 70 | 98 | 0.0 | 0.0 | 0.00 | 0.10 | 0.00 | 99 | 1016.0 |
| 20260906073343 | 70 | 98 | 0.0 | 0.0 | 0.00 | 0.10 | 0.00 | 99 | 1016.1 |
| 20260906073241 | 70 | 98 | 0.0 | 0.0 | 0.00 | 0.10 | 0.00 | 99 | 1016.0 |
| 20260906073140 | 70 | 98 | 0.0 | 0.0 | 0.00 | 0.11 | 0.00 | 99 | 1016.0 |
| 20260906073041 | 70 | 98 | 0.0 | 0.0 | 0.00 | 0.11 | 0.00 | 99 | 1016.1 |
| 20260906072937 | 70 | 98 | 0.0 | 0.0 | 0.00 | 0.11 | 0.00 | 99 | 1016.1 |
| 20260906072837 | 70 | 98 | 0.0 | 0.0 | 0.00 | 0.11 | 0.00 | 99 | 1016.1 |
| 20260906072737 | 70 | 98 | 0.0 | 0.0 | 0.00 | 0.11 | 0.00 | 99 | 1016.1 |
| 20260906072635 | 70 | 98 | 0.0 | 0.0 | 0.00 | 0.11 | 0.00 | 99 | 1016.1 |
| 20260906072534 | 70 | 98 | 0.0 | 0.0 | 0.00 | 0.11 | 0.00 | 99 | 1016.2 |
| 20260906072434 | 70 | 98 | 0.0 | 0.0 | 0.00 | 0.11 | 0.00 | 99 | 1016.2 |
| 20260906072331 | 70 | 98 | 0.0 | 0.0 | 0.00 | 0.11 | 0.00 | 99 | 1016.1 |
| 20260906072229 | 70 | 98 | 0.0 | 0.0 | 0.00 | 0.11 | 0.00 | 99 | 1016.1 |
| 20260906072130 | 70 | 98 | 0.0 | 0.0 | 0.00 | 0.11 | 0.00 | 99 | 1016.1 |
| 20260906072028 | 70 | 98 | 0.0 | 0.0 | 0.00 | 0.11 | 0.00 | 99 | 1016.1 |
| 20260906071927 | 70 | 98 | 0.0 | 0.0 | 0.00 | 0.11 | 0.00 | 99 | 1016.1 |
| 20260906071825 | 70 | 98 | 0.0 | 0.0 | 0.00 | 0.11 | 0.00 | 99 | 1016.1 |
| 20260906071723 | 70 | 98 | 0.0 | 0.0 | 0.00 | 0.11 | 0.00 | 99 | 1016.2 |
| 20260906071623 | 70 | 98 | 0.0 | 0.0 | 0.00 | 0.11 | 0.00 | 99 | 1016.2 |
| 20260906071523 | 70 | 98 | 0.0 | 0.0 | 0.00 | 0.11 | 0.00 | 99 | 1016.2 |
| 20260906071419 | 70 | 98 | 0.0 | 0.0 | 0.00 | 0.11 | 0.00 | 99 | 1016.2 |
| 20260906071319 | 70 | 98 | 0.0 | 0.0 | 0.00 | 0.11 | 0.00 | 99 | 1016.2 |
| 20260906071211 | 70 | 98 | 0.0 | 0.0 | 0.00 | 0.11 | 0.00 | 99 | 1016.2 |
| 20260906071112 | 70 | 98 | 0.0 | 0.0 | 0.00 | 0.11 | 0.00 | 99 | 1016.2 |
| 20260906071012 | 70 | 98 | 0.0 | 0.0 | 0.00 | 0.11 | 0.00 | 99 | 1016.2 |
| 20260906070912 | 70 | 98 | 0.0 | 0.0 | 0.00 | 0.11 | 0.00 | 98 | 1016.1 |
| 20260906070813 | 70 | 98 | 0.0 | 0.0 | 0.00 | 0.11 | 0.00 | 98 | 1016.2 |
| 20260906070708 | 70 | 98 | 0.0 | 0.0 | 0.00 | 0.11 | 0.00 | 98 | 1016.2 |
| 20260906070606 | 70 | 98 | 0.0 | 0.0 | 0.00 | 0.11 | 0.00 | 98 | 1016.2 |
| 20260906070507 | 70 | 98 | 0.0 | 0.0 | 0.00 | 0.11 | 0.00 | 98 | 1016.3 |
| 20260906070406 | 70 | 98 | 0.0 | 0.0 | 0.00 | 0.11 | 0.00 | 98 | 1016.3 |
| 20260906070307 | 70 | 98 | 0.0 | 0.0 | 0.00 | 0.11 | 0.00 | 98 | 1016.3 |
| 20260906070205 | 70 | 98 | 0.0 | 0.0 | 0.00 | 0.11 | 0.00 | 98 | 1016.3 |
| 20260906070104 | 70 | 98 | 0.0 | 0.0 | 0.00 | 0.11 | 0.00 | 98 | 1016.4 |
| 20260906070005 | 70 | 98 | 0.0 | 0.0 | 0.00 | 0.11 | 0.00 | 98 | 1016.2 |
| 20260906065902 | 70 | 98 | 0.0 | 0.0 | 0.00 | 0.11 | 0.00 | 98 | 1016.3 |
| 20260906065800 | 70 | 98 | 0.0 | 0.0 | 0.00 | 0.11 | 0.00 | 98 | 1016.3 |
| 20260906065657 | 70 | 98 | 0.0 | 0.0 | 0.00 | 0.11 | 0.00 | 98 | 1016.3 |
| 20260906065554 | 70 | 98 | 0.0 | 0.0 | 0.00 | 0.11 | 0.00 | 98 | 1016.4 |
| 20260906065353 | 70 | 98 | 0.0 | 0.0 | 0.00 | 0.11 | 0.00 | 98 | 1016.4 |
| 20260906065255 | 70 | 98 | 0.0 | 0.0 | 0.00 | 0.11 | 0.00 | 98 | 1016.4 |
| 20260906065152 | 70 | 98 | 0.0 | 0.9 | 0.00 | 0.11 | 0.00 | 98 | 1016.4 |
| 20260906065055 | 70 | 98 | 0.0 | 0.9 | 0.00 | 0.11 | 0.00 | 98 | 1016.4 |
| 20260906065040 | 70 | 98 | 0.0 | 0.9 | 0.00 | 0.11 | 0.00 | 98 | 1016.4 |
| 20260906064849 | 70 | 98 | 0.0 | 0.9 | 0.00 | 0.11 | 0.00 | 98 | 1016.4 |
| 20260906064749 | 70 | 98 | 0.0 | 0.9 | 0.00 | 0.11 | 0.00 | 98 | 1016.4 |
| 20260906064644 | 70 | 98 | 0.0 | 0.9 | 0.00 | 0.11 | 0.00 | 98 | 1016.3 |
| 20260906064542 | 70 | 98 | 0.0 | 0.9 | 0.00 | 0.11 | 0.00 | 98 | 1016.3 |
| 20260906064342 | 70 | 98 | 0.0 | 0.9 | 0.00 | 0.11 | 0.00 | 98 | 1016.4 |
| 20260906064243 | 70 | 98 | 0.0 | 0.9 | 0.00 | 0.11 | 0.00 | 98 | 1016.4 |
| 20260906064138 | 70 | 99 | 0.0 | 0.0 | 0.00 | 0.11 | 0.00 | 98 | 1016.4 |
| 20260906064037 | 70 | 98 | 0.0 | 0.0 | 0.00 | 0.11 | 0.00 | 98 | 1016.4 |
| 20260906063835 | 70 | 98 | 0.0 | 0.0 | 0.00 | 0.11 | 0.00 | 98 | 1016.4 |
| 20260906063737 | 70 | 98 | 0.0 | 0.0 | 0.00 | 0.11 | 0.00 | 98 | 1016.5 |
| 20260906063630 | 70 | 98 | 0.0 | 0.0 | 0.00 | 0.11 | 0.00 | 98 | 1016.5 |
| 20260906063539 | 70 | 99 | 0.0 | 0.0 | 0.00 | 0.11 | 0.00 | 98 | 1016.5 |
| 20260906063522 | 70 | 98 | 0.0 | 0.0 | 0.00 | 0.11 | 0.00 | 98 | 1016.5 |
| 20260906063330 | 70 | 98 | 0.0 | 0.0 | 0.00 | 0.11 | 0.00 | 98 | 1016.6 |
| 20260906063247 | 70 | 99 | 0.0 | 0.0 | 0.00 | 0.11 | 0.00 | 98 | 1016.4 |
| 20260906063230 | 70 | 99 | 0.0 | 0.0 | 0.00 | 0.11 | 0.00 | 98 | 1016.6 |
| 20260906063039 | 70 | 98 | 0.0 | 0.0 | 0.00 | 0.11 | 0.00 | 98 | 1016.5 |
| 20260906063017 | 70 | 99 | 0.0 | 0.0 | 0.00 | 0.11 | 0.00 | 98 | 1016.5 |
| 20260906062826 | 70 | 99 | 0.0 | 0.0 | 0.00 | 0.11 | 0.00 | 98 | 1016.6 |
| 20260906062724 | 70 | 99 | 0.0 | 0.0 | 0.00 | 0.11 | 0.00 | 98 | 1016.6 |
| 20260906062623 | 70 | 99 | 0.0 | 0.0 | 0.00 | 0.11 | 0.00 | 98 | 1016.6 |
| 20260906062523 | 70 | 99 | 0.0 | 0.0 | 0.00 | 0.11 | 0.00 | 98 | 1016.6 |
| 20260906062421 | 70 | 99 | 0.0 | 0.0 | 0.00 | 0.11 | 0.00 | 98 | 1016.5 |
| 20260906062321 | 70 | 99 | 0.0 | 0.0 | 0.00 | 0.11 | 0.00 | 98 | 1016.5 |
| 20260906062219 | 70 | 99 | 0.0 | 0.0 | 0.00 | 0.11 | 0.00 | 98 | 1016.4 |
| 20260906062112 | 70 | 99 | 0.0 | 0.0 | 0.00 | 0.11 | 0.00 | 98 | 1016.3 |
| 20260906062012 | 70 | 99 | 0.0 | 0.0 | 0.00 | 0.11 | 0.00 | 98 | 1016.4 |
| 20260906061913 | 70 | 99 | 0.0 | 0.0 | 0.00 | 0.11 | 0.00 | 98 | 1016.3 |
| 20260906061812 | 70 | 99 | 0.0 | 0.0 | 0.00 | 0.11 | 0.00 | 98 | 1016.4 |
| 20260906061729 | 70 | 99 | 0.0 | 0.0 | 0.00 | 0.11 | 0.00 | 98 | 1016.4 |
| 20260906061714 | 70 | 99 | 0.0 | 0.0 | 0.00 | 0.11 | 0.00 | 98 | 1016.4 |
| 20260906061513 | 70 | 99 | 0.0 | 0.0 | 0.00 | 0.11 | 0.00 | 98 | 1016.4 |
| 20260906061457 | 70 | 99 | 0.0 | 0.0 | 0.00 | 0.11 | 0.00 | 98 | 1016.4 |
| 20260906061308 | 70 | 99 | 0.0 | 0.0 | 0.00 | 0.11 | 0.00 | 98 | 1016.3 |
| 20260906061207 | 70 | 99 | 0.0 | 0.0 | 0.00 | 0.11 | 0.00 | 97 | 1016.4 |
| 20260906061103 | 70 | 99 | 0.0 | 0.0 | 0.00 | 0.11 | 0.00 | 97 | 1016.4 |
| 20260906061003 | 70 | 99 | 0.0 | 0.0 | 0.00 | 0.11 | 0.00 | 97 | 1016.4 |
| 20260906060903 | 70 | 98 | 0.0 | 0.0 | 0.00 | 0.11 | 0.00 | 97 | 1016.4 |
| 20260906060801 | 70 | 99 | 0.0 | 0.0 | 0.00 | 0.11 | 0.00 | 97 | 1016.4 |
| 20260906060701 | 70 | 99 | 0.0 | 0.0 | 0.00 | 0.11 | 0.00 | 97 | 1016.3 |
| 20260906060601 | 70 | 99 | 0.0 | 0.0 | 0.00 | 0.11 | 0.00 | 97 | 1016.3 |
| 20260906060459 | 70 | 99 | 0.0 | 0.0 | 0.00 | 0.11 | 0.00 | 97 | 1016.4 |
| 20260906060358 | 70 | 99 | 0.0 | 0.0 | 0.00 | 0.11 | 0.00 | 97 | 1016.4 |
| 20260906060257 | 70 | 99 | 0.0 | 0.0 | 0.00 | 0.11 | 0.00 | 97 | 1016.4 |
| 20260906060155 | 70 | 99 | 0.0 | 0.0 | 0.00 | 0.11 | 0.00 | 97 | 1016.4 |
| 20260906060052 | 70 | 99 | 0.0 | 0.0 | 0.00 | 0.11 | 0.00 | 97 | 1016.3 |
| 20260906055952 | 70 | 99 | 0.0 | 0.0 | 0.00 | 0.11 | 0.00 | 97 | 1016.3 |
| 20260906055853 | 70 | 99 | 0.0 | 0.0 | 0.00 | 0.12 | 0.00 | 97 | 1016.3 |
| 20260906055751 | 70 | 99 | 0.0 | 0.0 | 0.00 | 0.12 | 0.00 | 97 | 1016.3 |
| 20260906055648 | 70 | 99 | 0.0 | 0.0 | 0.00 | 0.12 | 0.00 | 97 | 1016.3 |
| 20260906055548 | 71 | 99 | 0.0 | 0.0 | 0.00 | 0.12 | 0.00 | 97 | 1016.4 |
| 20260906055448 | 71 | 99 | 0.0 | 0.0 | 0.00 | 0.12 | 0.00 | 97 | 1016.2 |
| 20260906055347 | 71 | 99 | 0.0 | 0.0 | 0.00 | 0.12 | 0.00 | 97 | 1016.3 |
| 20260906055245 | 71 | 99 | 0.0 | 0.0 | 0.00 | 0.12 | 0.00 | 97 | 1016.4 |
| 20260906055143 | 71 | 99 | 0.0 | 0.0 | 0.00 | 0.12 | 0.00 | 97 | 1016.3 |
| 20260906055042 | 71 | 99 | 0.0 | 0.0 | 0.00 | 0.12 | 0.00 | 97 | 1016.3 |
| 20260906054940 | 71 | 99 | 0.0 | 0.0 | 0.00 | 0.12 | 0.00 | 97 | 1016.4 |
| 20260906054839 | 71 | 99 | 0.0 | 0.0 | 0.00 | 0.12 | 0.00 | 97 | 1016.4 |
| 20260906054739 | 71 | 99 | 0.0 | 0.0 | 0.00 | 0.12 | 0.00 | 96 | 1016.4 |
| 20260906054637 | 71 | 99 | 0.0 | 0.0 | 0.00 | 0.12 | 0.00 | 96 | 1016.4 |
| 20260906054534 | 71 | 99 | 0.0 | 0.0 | 0.00 | 0.12 | 0.00 | 96 | 1016.5 |
| 20260906054434 | 71 | 99 | 0.0 | 0.0 | 0.00 | 0.12 | 0.00 | 96 | 1016.4 |
| 20260906054334 | 71 | 99 | 0.0 | 0.0 | 0.00 | 0.12 | 0.00 | 96 | 1016.5 |
| 20260906054232 | 71 | 99 | 0.0 | 0.0 | 0.00 | 0.12 | 0.00 | 96 | 1016.4 |
| 20260906054130 | 71 | 99 | 0.0 | 0.0 | 0.00 | 0.12 | 0.00 | 96 | 1016.5 |
| 20260906054029 | 71 | 99 | 0.0 | 0.0 | 0.00 | 0.12 | 0.00 | 96 | 1016.5 |
| 20260906053929 | 71 | 99 | 0.0 | 0.0 | 0.00 | 0.12 | 0.00 | 96 | 1016.5 |
| 20260906053833 | 71 | 99 | 0.0 | 0.0 | 0.00 | 0.12 | 0.00 | 96 | 1016.4 |
| 20260906053727 | 71 | 99 | 0.0 | 0.0 | 0.00 | 0.12 | 0.00 | 96 | 1016.5 |
| 20260906053625 | 71 | 99 | 0.0 | 0.0 | 0.00 | 0.12 | 0.00 | 96 | 1016.5 |
| 20260906053523 | 71 | 99 | 0.0 | 0.0 | 0.00 | 0.12 | 0.00 | 96 | 1016.4 |
| 20260906053421 | 71 | 98 | 0.0 | 0.0 | 0.00 | 0.12 | 0.00 | 96 | 1016.4 |
| 20260906053322 | 71 | 99 | 0.0 | 0.0 | 0.00 | 0.12 | 0.00 | 96 | 1016.5 |
| 20260906053221 | 71 | 99 | 0.0 | 0.0 | 0.00 | 0.12 | 0.00 | 96 | 1016.5 |
| 20260906053118 | 71 | 99 | 0.0 | 0.0 | 0.00 | 0.12 | 0.00 | 96 | 1016.5 |
| 20260906053013 | 71 | 99 | 0.0 | 0.0 | 0.00 | 0.12 | 0.00 | 96 | 1016.4 |
| 20260906052913 | 71 | 99 | 0.0 | 0.0 | 0.00 | 0.12 | 0.00 | 96 | 1016.5 |
| 20260906052812 | 71 | 99 | 0.0 | 0.0 | 0.00 | 0.12 | 0.00 | 96 | 1016.5 |
| 20260906052712 | 71 | 99 | 0.0 | 0.0 | 0.00 | 0.12 | 0.00 | 96 | 1016.5 |
| 20260906052612 | 71 | 99 | 0.0 | 0.0 | 0.00 | 0.12 | 0.00 | 95 | 1016.6 |
| 20260906052513 | 71 | 99 | 0.0 | 0.0 | 0.00 | 0.12 | 0.00 | 95 | 1016.6 |
| 20260906052410 | 71 | 99 | 0.0 | 0.0 | 0.00 | 0.12 | 0.00 | 95 | 1016.7 |
| 20260906052311 | 71 | 99 | 0.0 | 0.0 | 0.00 | 0.12 | 0.00 | 95 | 1016.6 |
| 20260906052209 | 71 | 99 | 0.0 | 0.0 | 0.00 | 0.12 | 0.00 | 95 | 1016.6 |
| 20260906052106 | 71 | 99 | 0.0 | 0.0 | 0.00 | 0.12 | 0.00 | 95 | 1016.6 |
| 20260906052004 | 71 | 99 | 0.0 | 0.0 | 0.00 | 0.12 | 0.00 | 95 | 1016.6 |
| 20260906051905 | 71 | 99 | 0.0 | 0.0 | 0.00 | 0.12 | 0.00 | 95 | 1016.6 |
| 20260906051804 | 71 | 99 | 0.0 | 0.0 | 0.00 | 0.12 | 0.00 | 95 | 1016.6 |
| 20260906051704 | 71 | 99 | 0.0 | 0.0 | 0.00 | 0.12 | 0.00 | 95 | 1016.6 |
| 20260906051601 | 71 | 99 | 0.0 | 0.0 | 0.00 | 0.12 | 0.00 | 95 | 1016.7 |
| 20260906051458 | 71 | 99 | 0.0 | 0.0 | 0.00 | 0.12 | 0.00 | 95 | 1016.7 |
| 20260906051357 | 71 | 99 | 0.0 | 0.0 | 0.00 | 0.12 | 0.00 | 95 | 1016.6 |
| 20260906051258 | 71 | 99 | 0.0 | 0.0 | 0.00 | 0.12 | 0.00 | 95 | 1016.7 |
| 20260906051157 | 71 | 99 | 0.0 | 0.0 | 0.00 | 0.12 | 0.00 | 95 | 1016.7 |
| 20260906051055 | 72 | 99 | 0.0 | 0.0 | 0.00 | 0.12 | 0.00 | 95 | 1016.6 |
| 20260906050950 | 72 | 99 | 0.0 | 0.0 | 0.00 | 0.12 | 0.00 | 95 | 1016.6 |
| 20260906050848 | 72 | 99 | 0.0 | 0.0 | 0.00 | 0.12 | 0.00 | 95 | 1016.6 |
| 20260906050648 | 72 | 99 | 0.0 | 0.0 | 0.00 | 0.12 | 0.00 | 95 | 1016.6 |
| 20260906050549 | 72 | 99 | 0.0 | 0.0 | 0.00 | 0.12 | 0.00 | 94 | 1016.6 |
| 20260906050448 | 72 | 99 | 0.0 | 0.0 | 0.00 | 0.12 | 0.00 | 94 | 1016.5 |
| 20260906050348 | 72 | 99 | 0.0 | 0.0 | 0.00 | 0.12 | 0.00 | 94 | 1016.6 |
| 20260906050251 | 72 | 99 | 0.0 | 0.0 | 0.00 | 0.12 | 0.00 | 94 | 1016.5 |
| 20260906050145 | 72 | 99 | 0.0 | 0.0 | 0.00 | 0.12 | 0.00 | 94 | 1016.6 |
| 20260906050049 | 72 | 99 | 0.0 | 0.0 | 0.00 | 0.12 | 0.00 | 94 | 1016.6 |
| 20260906045941 | 72 | 98 | 0.0 | 0.0 | 0.00 | 0.12 | 0.00 | 94 | 1016.6 |
| 20260906045839 | 72 | 98 | 0.0 | 0.0 | 0.00 | 0.12 | 0.00 | 94 | 1016.6 |
| 20260906045741 | 72 | 98 | 0.0 | 0.0 | 0.00 | 0.12 | 0.00 | 94 | 1016.7 |
| 20260906045638 | 72 | 98 | 0.0 | 0.0 | 0.00 | 0.12 | 0.00 | 94 | 1016.7 |
| 20260906045537 | 72 | 98 | 0.0 | 0.0 | 0.00 | 0.12 | 0.00 | 94 | 1016.7 |
| 20260906045437 | 72 | 98 | 0.0 | 0.0 | 0.00 | 0.12 | 0.00 | 94 | 1016.7 |
| 20260906045335 | 72 | 98 | 0.0 | 0.0 | 0.00 | 0.12 | 0.00 | 94 | 1016.7 |
| 20260906045235 | 72 | 98 | 0.0 | 0.0 | 0.00 | 0.12 | 0.00 | 94 | 1016.8 |
| 20260906045131 | 72 | 98 | 0.0 | 0.0 | 0.00 | 0.12 | 0.00 | 94 | 1016.7 |
| 20260906045031 | 72 | 98 | 0.0 | 0.0 | 0.00 | 0.12 | 0.00 | 94 | 1016.8 |
| 20260906044932 | 72 | 98 | 0.0 | 0.0 | 0.00 | 0.12 | 0.00 | 94 | 1016.8 |
| 20260906044828 | 72 | 98 | 0.0 | 0.0 | 0.00 | 0.12 | 0.00 | 94 | 1016.7 |
| 20260906044726 | 72 | 98 | 0.0 | 0.0 | 0.00 | 0.12 | 0.00 | 94 | 1016.7 |
| 20260906044627 | 72 | 99 | 0.0 | 0.0 | 0.00 | 0.12 | 0.00 | 94 | 1016.8 |
| 20260906044524 | 72 | 99 | 0.0 | 0.0 | 0.00 | 0.12 | 0.00 | 94 | 1016.8 |
| 20260906044423 | 72 | 99 | 0.0 | 0.0 | 0.00 | 0.12 | 0.00 | 94 | 1016.8 |
| 20260906044325 | 72 | 99 | 0.0 | 0.0 | 0.00 | 0.12 | 0.00 | 94 | 1016.9 |
| 20260906044309 | 72 | 98 | 0.0 | 0.0 | 0.00 | 0.12 | 0.00 | 94 | 1016.9 |
| 20260906044121 | 72 | 98 | 0.0 | 0.0 | 0.00 | 0.12 | 0.00 | 94 | 1016.9 |
| 20260906044018 | 72 | 99 | 0.0 | 0.0 | 0.00 | 0.12 | 0.00 | 94 | 1016.9 |
| 20260906043913 | 72 | 98 | 0.0 | 0.0 | 0.00 | 0.12 | 0.00 | 94 | 1016.9 |
| 20260906043813 | 72 | 99 | 0.0 | 0.0 | 0.00 | 0.12 | 0.00 | 94 | 1016.9 |
| 20260906043712 | 72 | 98 | 0.0 | 0.0 | 0.00 | 0.12 | 0.00 | 94 | 1016.9 |
| 20260906043611 | 72 | 99 | 0.0 | 0.0 | 0.00 | 0.12 | 0.00 | 94 | 1016.8 |
| 20260906043512 | 72 | 99 | 0.0 | 0.0 | 0.00 | 0.12 | 0.00 | 94 | 1016.8 |
| 20260906043407 | 72 | 98 | 0.0 | 0.0 | 0.00 | 0.12 | 0.00 | 94 | 1016.8 |
| 20260906043314 | 72 | 99 | 0.0 | 0.0 | 0.00 | 0.12 | 0.00 | 94 | 1016.9 |
| 20260906043257 | 72 | 99 | 0.0 | 0.0 | 0.00 | 0.12 | 0.00 | 94 | 1016.8 |
| 20260906043105 | 72 | 99 | 0.0 | 0.0 | 0.00 | 0.12 | 0.00 | 94 | 1016.8 |
| 20260906043007 | 72 | 99 | 0.0 | 0.0 | 0.00 | 0.12 | 0.00 | 94 | 1016.8 |
| 20260906042902 | 72 | 99 | 0.0 | 0.0 | 0.00 | 0.12 | 0.00 | 94 | 1016.8 |
| 20260906042809 | 72 | 98 | 0.0 | 0.0 | 0.00 | 0.12 | 0.00 | 94 | 1016.7 |
| 20260906042751 | 72 | 98 | 0.0 | 0.0 | 0.00 | 0.12 | 0.00 | 94 | 1016.8 |
| 20260906042603 | 72 | 98 | 0.0 | 0.0 | 0.00 | 0.12 | 0.00 | 94 | 1016.8 |
| 20260906042501 | 72 | 98 | 0.0 | 0.0 | 0.00 | 0.12 | 0.00 | 94 | 1016.9 |
| 20260906042401 | 72 | 98 | 0.0 | 0.0 | 0.00 | 0.12 | 0.00 | 94 | 1016.9 |
| 20260906042258 | 72 | 98 | 0.0 | 0.0 | 0.00 | 0.12 | 0.00 | 94 | 1016.9 |
| 20260906042158 | 73 | 98 | 0.0 | 0.0 | 0.00 | 0.12 | 0.00 | 94 | 1017.0 |
| 20260906042057 | 73 | 98 | 0.0 | 0.0 | 0.00 | 0.12 | 0.00 | 94 | 1017.0 |
| 20260906041955 | 73 | 98 | 0.0 | 0.0 | 0.00 | 0.12 | 0.00 | 94 | 1017.0 |
| 20260906041853 | 73 | 98 | 0.0 | 0.0 | 0.00 | 0.12 | 0.00 | 94 | 1017.2 |
| 20260906041752 | 73 | 98 | 0.0 | 0.0 | 0.00 | 0.12 | 0.00 | 94 | 1017.2 |
| 20260906041652 | 73 | 98 | 0.0 | 0.0 | 0.00 | 0.12 | 0.00 | 94 | 1017.2 |
| 20260906041551 | 73 | 98 | 0.0 | 0.0 | 0.00 | 0.12 | 0.00 | 94 | 1017.3 |
| 20260906041449 | 73 | 99 | 0.0 | 0.0 | 0.00 | 0.12 | 0.00 | 94 | 1017.2 |
| 20260906041347 | 73 | 99 | 0.0 | 0.0 | 0.00 | 0.12 | 0.00 | 94 | 1017.3 |
| 20260906041245 | 73 | 99 | 0.0 | 0.0 | 0.00 | 0.12 | 0.00 | 94 | 1017.2 |
| 20260906041146 | 73 | 99 | 0.0 | 0.0 | 0.00 | 0.12 | 0.00 | 94 | 1017.2 |
| 20260906041044 | 73 | 99 | 0.0 | 0.0 | 0.00 | 0.12 | 0.00 | 94 | 1017.2 |
| 20260906040945 | 73 | 99 | 0.0 | 0.0 | 0.00 | 0.12 | 0.00 | 94 | 1017.0 |
| 20260906040843 | 73 | 99 | 0.0 | 0.0 | 0.00 | 0.12 | 0.00 | 94 | 1017.0 |
| 20260906040742 | 73 | 99 | 0.0 | 0.0 | 0.00 | 0.12 | 0.00 | 94 | 1017.0 |
| 20260906040727 | 73 | 99 | 0.0 | 0.0 | 0.00 | 0.12 | 0.00 | 94 | 1017.0 |
| 20260906040538 | 73 | 99 | 0.0 | 0.0 | 0.00 | 0.12 | 0.00 | 94 | 1016.9 |
| 20260906040436 | 73 | 99 | 0.0 | 0.0 | 0.00 | 0.12 | 0.00 | 93 | 1016.9 |
| 20260906040335 | 73 | 99 | 0.0 | 0.0 | 0.00 | 0.12 | 0.00 | 93 | 1016.8 |
| 20260906040235 | 73 | 99 | 0.0 | 0.0 | 0.00 | 0.12 | 0.00 | 93 | 1016.8 |
| 20260906040132 | 73 | 99 | 0.0 | 0.0 | 0.00 | 0.12 | 0.00 | 93 | 1016.8 |
| 20260906040033 | 73 | 99 | 0.0 | 0.0 | 0.00 | 0.12 | 0.00 | 93 | 1016.8 |
| 20260906035929 | 73 | 99 | 0.0 | 0.0 | 0.00 | 0.12 | 0.12 | 93 | 1016.8 |
| 20260906035828 | 73 | 99 | 0.0 | 0.0 | 0.00 | 0.12 | 0.12 | 93 | 1016.9 |
| 20260906035727 | 73 | 99 | 0.0 | 0.0 | 0.00 | 0.12 | 0.12 | 93 | 1016.9 |
| 20260906035627 | 73 | 99 | 0.0 | 0.0 | 0.00 | 0.12 | 0.12 | 93 | 1016.9 |
| 20260906035525 | 73 | 99 | 0.0 | 0.0 | 0.00 | 0.12 | 0.12 | 93 | 1016.8 |
| 20260906035423 | 73 | 99 | 0.0 | 0.0 | 0.00 | 0.12 | 0.12 | 93 | 1016.8 |
| 20260906035317 | 73 | 99 | 0.0 | 0.0 | 0.00 | 0.12 | 0.12 | 93 | 1016.8 |
| 20260906035217 | 73 | 99 | 0.0 | 0.0 | 0.00 | 0.12 | 0.12 | 93 | 1016.8 |
| 20260906035116 | 73 | 99 | 0.0 | 0.0 | 0.00 | 0.12 | 0.12 | 93 | 1016.7 |
| 20260906035017 | 73 | 99 | 0.0 | 0.0 | 0.00 | 0.12 | 0.12 | 93 | 1016.7 |
| 20260906034919 | 73 | 99 | 0.0 | 0.0 | 0.00 | 0.12 | 0.12 | 93 | 1016.7 |
| 20260906034814 | 73 | 99 | 0.0 | 0.0 | 0.00 | 0.12 | 0.12 | 92 | 1016.7 |
| 20260906034711 | 73 | 99 | 0.0 | 0.0 | 0.00 | 0.12 | 0.12 | 92 | 1016.6 |
| 20260906034612 | 74 | 99 | 0.0 | 0.0 | 0.00 | 0.12 | 0.12 | 92 | 1016.8 |
| 20260906034512 | 74 | 99 | 0.0 | 0.9 | 0.00 | 0.12 | 0.12 | 92 | 1016.7 |
| 20260906034412 | 74 | 99 | 0.0 | 0.9 | 0.00 | 0.12 | 0.12 | 92 | 1016.7 |
| 20260906034309 | 74 | 99 | 0.0 | 0.9 | 0.00 | 0.12 | 0.12 | 92 | 1016.8 |
| 20260906034208 | 74 | 99 | 0.0 | 1.7 | 0.00 | 0.12 | 0.12 | 92 | 1016.7 |
| 20260906034110 | 74 | 99 | 0.0 | 1.7 | 0.00 | 0.12 | 0.12 | 93 | 1016.8 |
| 20260906034008 | 74 | 99 | 0.0 | 1.7 | 0.00 | 0.12 | 0.12 | 93 | 1016.7 |
| 20260906033906 | 74 | 99 | 0.0 | 1.7 | 0.00 | 0.12 | 0.12 | 93 | 1016.8 |
| 20260906033806 | 74 | 99 | 0.0 | 1.7 | 0.00 | 0.12 | 0.12 | 93 | 1016.8 |
| 20260906033702 | 73 | 99 | 0.0 | 1.7 | 0.00 | 0.12 | 0.12 | 93 | 1016.8 |
| 20260906033605 | 73 | 99 | 0.0 | 1.7 | 0.00 | 0.12 | 0.12 | 93 | 1016.8 |
| 20260906033501 | 73 | 99 | 0.0 | 1.7 | 0.00 | 0.12 | 0.12 | 93 | 1016.8 |
| 20260906033400 | 73 | 99 | 0.0 | 1.7 | 0.00 | 0.12 | 0.12 | 93 | 1016.8 |
| 20260906033300 | 73 | 99 | 0.0 | 1.7 | 0.00 | 0.12 | 0.12 | 93 | 1016.8 |
| 20260906033157 | 73 | 238 | 0.0 | 0.9 | 0.00 | 0.12 | 0.12 | 93 | 1016.7 |
| 20260906033057 | 73 | 238 | 0.0 | 0.9 | 0.00 | 0.12 | 0.12 | 93 | 1016.8 |
| 20260906032956 | 73 | 238 | 0.0 | 0.9 | 0.00 | 0.12 | 0.12 | 93 | 1016.7 |
| 20260906032854 | 73 | 217 | 0.0 | 0.0 | 0.00 | 0.12 | 0.12 | 93 | 1016.7 |
| 20260906032750 | 73 | 217 | 0.0 | 0.0 | 0.00 | 0.12 | 0.12 | 93 | 1016.7 |
| 20260906032651 | 73 | 217 | 0.0 | 0.0 | 0.00 | 0.12 | 0.12 | 93 | 1016.7 |
| 20260906032552 | 73 | 217 | 0.0 | 0.0 | 0.00 | 0.12 | 0.12 | 93 | 1016.8 |
| 20260906032448 | 73 | 217 | 0.0 | 0.0 | 0.00 | 0.12 | 0.12 | 93 | 1016.8 |
| 20260906032348 | 73 | 217 | 0.0 | 0.0 | 0.00 | 0.12 | 0.12 | 93 | 1016.7 |
| 20260906032247 | 73 | 217 | 0.0 | 0.0 | 0.00 | 0.12 | 0.12 | 93 | 1016.7 |
| 20260906032146 | 73 | 217 | 0.0 | 0.0 | 0.00 | 0.12 | 0.12 | 93 | 1016.7 |
| 20260906032046 | 73 | 217 | 0.0 | 0.0 | 0.00 | 0.12 | 0.12 | 93 | 1016.7 |
| 20260906031945 | 73 | 217 | 0.0 | 0.0 | 0.00 | 0.12 | 0.12 | 93 | 1016.6 |
| 20260906031842 | 73 | 217 | 0.0 | 0.0 | 0.00 | 0.12 | 0.12 | 93 | 1016.7 |
| 20260906031742 | 73 | 217 | 0.0 | 0.0 | 0.00 | 0.12 | 0.12 | 93 | 1016.6 |
| 20260906031638 | 73 | 217 | 0.0 | 0.0 | 0.00 | 0.12 | 0.12 | 93 | 1016.7 |
| 20260906031539 | 73 | 217 | 0.0 | 0.0 | 0.00 | 0.12 | 0.12 | 93 | 1016.7 |
| 20260906031438 | 73 | 217 | 0.0 | 0.0 | 0.00 | 0.12 | 0.12 | 93 | 1016.7 |
| 20260906031336 | 73 | 217 | 0.0 | 0.0 | 0.00 | 0.12 | 0.12 | 93 | 1016.7 |
| 20260906031233 | 73 | 217 | 0.0 | 0.0 | 0.00 | 0.12 | 0.12 | 93 | 1016.8 |
| 20260906031134 | 73 | 217 | 0.0 | 0.0 | 0.00 | 0.12 | 0.12 | 93 | 1016.7 |
| 20260906031032 | 73 | 217 | 0.0 | 0.0 | 0.00 | 0.12 | 0.12 | 93 | 1016.8 |
| 20260906030931 | 73 | 217 | 0.0 | 0.0 | 0.00 | 0.12 | 0.12 | 92 | 1016.7 |
| 20260906030830 | 73 | 217 | 0.0 | 0.0 | 0.00 | 0.12 | 0.12 | 92 | 1016.8 |
| 20260906030730 | 73 | 217 | 0.0 | 0.0 | 0.00 | 0.12 | 0.12 | 92 | 1016.8 |
| 20260906030627 | 73 | 217 | 0.0 | 0.0 | 0.00 | 0.12 | 0.12 | 92 | 1016.9 |
| 20260906030528 | 73 | 217 | 0.0 | 0.0 | 0.00 | 0.12 | 0.12 | 93 | 1016.8 |
| 20260906030426 | 73 | 217 | 0.0 | 0.0 | 0.00 | 0.12 | 0.12 | 93 | 1016.8 |
| 20260906030324 | 73 | 217 | 0.0 | 0.0 | 0.00 | 0.12 | 0.12 | 93 | 1016.8 |
| 20260906030224 | 73 | 217 | 0.0 | 0.0 | 0.00 | 0.12 | 0.12 | 93 | 1016.8 |
| 20260906030121 | 73 | 217 | 0.0 | 0.0 | 0.00 | 0.12 | 0.12 | 93 | 1016.8 |
| 20260906030020 | 73 | 217 | 0.0 | 0.0 | 0.00 | 0.12 | 0.12 | 93 | 1016.8 |
| 20260906025920 | 73 | 217 | 0.0 | 0.0 | 0.00 | 0.12 | 0.12 | 92 | 1016.8 |
| 20260906025818 | 73 | 217 | 0.0 | 0.0 | 0.00 | 0.12 | 0.12 | 92 | 1016.8 |
| 20260906025714 | 73 | 217 | 0.0 | 0.0 | 0.00 | 0.12 | 0.12 | 92 | 1016.8 |
| 20260906025612 | 73 | 217 | 0.0 | 0.0 | 0.00 | 0.12 | 0.12 | 92 | 1016.7 |
| 20260906025511 | 73 | 217 | 0.0 | 0.0 | 0.00 | 0.12 | 0.12 | 92 | 1016.8 |
| 20260906025412 | 74 | 217 | 0.0 | 0.0 | 0.00 | 0.12 | 0.12 | 92 | 1016.7 |
| 20260906025311 | 74 | 217 | 0.0 | 0.0 | 0.00 | 0.12 | 0.12 | 92 | 1016.7 |
| 20260906025212 | 74 | 217 | 0.0 | 0.0 | 0.00 | 0.12 | 0.12 | 92 | 1016.6 |
| 20260906025109 | 74 | 217 | 0.0 | 0.0 | 0.00 | 0.12 | 0.12 | 92 | 1016.7 |
| 20260906025010 | 74 | 217 | 0.0 | 0.0 | 0.00 | 0.12 | 0.12 | 92 | 1016.7 |
| 20260906024906 | 74 | 217 | 0.0 | 0.0 | 0.00 | 0.12 | 0.12 | 92 | 1016.7 |
| 20260906024807 | 74 | 217 | 0.0 | 0.0 | 0.00 | 0.12 | 0.12 | 92 | 1016.7 |
| 20260906024705 | 74 | 217 | 0.0 | 0.0 | 0.00 | 0.12 | 0.12 | 92 | 1016.7 |
| 20260906024604 | 74 | 217 | 0.0 | 0.0 | 0.00 | 0.12 | 0.12 | 91 | 1016.7 |
| 20260906024502 | 74 | 217 | 0.0 | 0.0 | 0.00 | 0.12 | 0.12 | 91 | 1016.8 |
| 20260906024402 | 74 | 217 | 0.0 | 0.0 | 0.00 | 0.12 | 0.12 | 91 | 1016.8 |
| 20260906024301 | 74 | 217 | 0.0 | 0.0 | 0.00 | 0.12 | 0.12 | 91 | 1016.9 |
| 20260906024156 | 74 | 217 | 0.0 | 0.0 | 0.00 | 0.12 | 0.12 | 91 | 1016.7 |
| 20260906024057 | 74 | 217 | 0.0 | 0.0 | 0.00 | 0.12 | 0.12 | 91 | 1016.8 |
| 20260906023855 | 74 | 217 | 0.0 | 0.0 | 0.00 | 0.12 | 0.12 | 91 | 1016.6 |
| 20260906023753 | 74 | 217 | 0.0 | 0.0 | 0.00 | 0.12 | 0.12 | 91 | 1016.6 |
| 20260906023653 | 74 | 217 | 0.0 | 0.0 | 0.00 | 0.12 | 0.12 | 91 | 1016.6 |
| 20260906023552 | 74 | 217 | 0.0 | 0.0 | 0.00 | 0.12 | 0.12 | 91 | 1016.5 |
| 20260906023452 | 74 | 217 | 0.0 | 0.0 | 0.00 | 0.12 | 0.12 | 91 | 1016.5 |
| 20260906023350 | 74 | 217 | 0.0 | 0.0 | 0.00 | 0.12 | 0.12 | 91 | 1016.5 |
| 20260906023247 | 74 | 217 | 0.0 | 0.0 | 0.00 | 0.12 | 0.12 | 91 | 1016.5 |
| 20260906023148 | 74 | 217 | 0.0 | 0.0 | 0.00 | 0.12 | 0.12 | 91 | 1016.5 |
| 20260906023045 | 74 | 217 | 0.0 | 0.0 | 0.00 | 0.12 | 0.12 | 90 | 1016.6 |
| 20260906022844 | 74 | 217 | 0.0 | 0.0 | 0.00 | 0.12 | 0.12 | 90 | 1016.6 |
| 20260906022741 | 74 | 217 | 0.0 | 0.0 | 0.00 | 0.12 | 0.12 | 90 | 1016.6 |
| 20260906022640 | 74 | 217 | 0.0 | 0.0 | 0.00 | 0.12 | 0.12 | 90 | 1016.6 |
| 20260906022539 | 74 | 217 | 0.0 | 0.0 | 0.00 | 0.12 | 0.12 | 90 | 1016.6 |
| 20260906022439 | 74 | 217 | 0.0 | 0.0 | 0.00 | 0.12 | 0.12 | 90 | 1016.6 |
| 20260906022338 | 74 | 217 | 0.0 | 0.0 | 0.00 | 0.12 | 0.12 | 90 | 1016.6 |
| 20260906022236 | 74 | 217 | 0.0 | 0.0 | 0.00 | 0.12 | 0.12 | 90 | 1016.6 |
| 20260906022135 | 74 | 217 | 0.0 | 0.0 | 0.00 | 0.12 | 0.12 | 90 | 1016.6 |
| 20260906022035 | 74 | 217 | 0.0 | 0.0 | 0.00 | 0.12 | 0.12 | 90 | 1016.6 |
| 20260906021934 | 75 | 217 | 0.0 | 0.0 | 0.00 | 0.12 | 0.12 | 90 | 1016.5 |
| 20260906021832 | 75 | 217 | 0.0 | 0.0 | 0.00 | 0.12 | 0.12 | 90 | 1016.6 |
| 20260906021730 | 75 | 217 | 0.0 | 0.0 | 0.00 | 0.12 | 0.12 | 90 | 1016.5 |
| 20260906021629 | 75 | 217 | 0.0 | 0.0 | 0.00 | 0.12 | 0.12 | 90 | 1016.5 |
| 20260906021528 | 75 | 217 | 0.0 | 0.0 | 0.00 | 0.12 | 0.12 | 90 | 1016.5 |
| 20260906021427 | 75 | 217 | 0.0 | 0.0 | 0.00 | 0.12 | 0.12 | 91 | 1016.6 |
| 20260906021326 | 75 | 217 | 0.0 | 0.0 | 0.00 | 0.12 | 0.12 | 91 | 1016.5 |
| 20260906021224 | 74 | 217 | 0.0 | 0.0 | 0.00 | 0.12 | 0.12 | 90 | 1016.4 |
| 20260906021116 | 75 | 217 | 0.0 | 0.0 | 0.00 | 0.12 | 0.12 | 90 | 1016.4 |
| 20260906021016 | 74 | 217 | 0.0 | 0.0 | 0.00 | 0.12 | 0.12 | 90 | 1016.6 |
| 20260906020817 | 75 | 217 | 0.0 | 0.0 | 0.00 | 0.12 | 0.12 | 90 | 1016.5 |
| 20260906020718 | 75 | 217 | 0.0 | 0.0 | 0.00 | 0.12 | 0.12 | 89 | 1016.5 |
| 20260906020615 | 75 | 217 | 0.0 | 0.0 | 0.00 | 0.12 | 0.12 | 89 | 1016.3 |
| 20260906020516 | 75 | 217 | 0.0 | 0.0 | 0.00 | 0.12 | 0.12 | 89 | 1016.4 |
| 20260906020313 | 75 | 217 | 0.0 | 0.0 | 0.00 | 0.12 | 0.12 | 89 | 1016.4 |
| 20260906020211 | 75 | 217 | 0.0 | 0.0 | 0.00 | 0.12 | 0.12 | 89 | 1016.4 |
| 20260906020110 | 75 | 217 | 0.0 | 0.0 | 0.00 | 0.12 | 0.12 | 89 | 1016.4 |
| 20260906020010 | 75 | 217 | 0.0 | 0.0 | 0.00 | 0.12 | 0.12 | 89 | 1016.4 |
| 20260906015808 | 75 | 217 | 0.0 | 0.0 | 0.00 | 0.12 | 0.12 | 89 | 1016.4 |
| 20260906015706 | 75 | 217 | 0.0 | 0.0 | 0.00 | 0.12 | 0.12 | 89 | 1016.5 |
| 20260906015602 | 75 | 217 | 0.0 | 0.0 | 0.00 | 0.12 | 0.12 | 89 | 1016.4 |
| 20260906015524 | 74 | 217 | 0.0 | 0.0 | 0.00 | 0.12 | 0.12 | 89 | 1016.5 |
| 20260906015404 | 74 | 217 | 0.0 | 0.0 | 0.00 | 0.12 | 0.12 | 89 | 1016.4 |
| 20260906015305 | 74 | 217 | 0.0 | 0.0 | 0.00 | 0.12 | 0.12 | 89 | 1016.4 |
| 20260906015200 | 74 | 217 | 0.0 | 0.0 | 0.00 | 0.12 | 0.12 | 88 | 1016.4 |
| 20260906015058 | 75 | 217 | 0.0 | 0.0 | 0.00 | 0.12 | 0.12 | 88 | 1016.4 |
| 20260906014957 | 75 | 217 | 0.0 | 0.0 | 0.00 | 0.12 | 0.12 | 88 | 1016.3 |
| 20260906014856 | 75 | 217 | 0.0 | 0.0 | 0.00 | 0.12 | 0.12 | 88 | 1016.3 |
| 20260906014755 | 75 | 217 | 0.0 | 0.0 | 0.00 | 0.12 | 0.12 | 88 | 1016.3 |
| 20260906014653 | 75 | 217 | 0.0 | 0.0 | 0.00 | 0.12 | 0.12 | 88 | 1016.4 |
| 20260906014554 | 75 | 217 | 0.0 | 0.0 | 0.00 | 0.12 | 0.12 | 88 | 1016.4 |
| 20260906014451 | 75 | 217 | 0.0 | 0.0 | 0.00 | 0.12 | 0.12 | 88 | 1016.4 |
| 20260906014351 | 75 | 217 | 0.0 | 0.0 | 0.00 | 0.12 | 0.12 | 88 | 1016.4 |
| 20260906014254 | 75 | 217 | 0.0 | 0.0 | 0.00 | 0.12 | 0.12 | 88 | 1016.4 |
| 20260906014147 | 75 | 217 | 0.0 | 0.0 | 0.00 | 0.12 | 0.12 | 88 | 1016.4 |
| 20260906014044 | 75 | 217 | 0.0 | 0.0 | 0.00 | 0.12 | 0.12 | 88 | 1016.4 |
| 20260906013944 | 75 | 217 | 0.0 | 0.0 | 0.00 | 0.12 | 0.12 | 88 | 1016.4 |
| 20260906013844 | 75 | 217 | 0.0 | 0.0 | 0.00 | 0.12 | 0.12 | 87 | 1016.4 |
| 20260906013744 | 75 | 217 | 0.0 | 0.0 | 0.00 | 0.12 | 0.12 | 87 | 1016.4 |
| 20260906013642 | 75 | 217 | 0.0 | 0.0 | 0.00 | 0.12 | 0.12 | 87 | 1016.4 |
| 20260906013540 | 75 | 217 | 0.0 | 0.0 | 0.00 | 0.12 | 0.12 | 87 | 1016.4 |
| 20260906013440 | 75 | 217 | 0.0 | 0.0 | 0.00 | 0.12 | 0.12 | 87 | 1016.4 |
| 20260906013338 | 75 | 217 | 0.0 | 0.0 | 0.00 | 0.12 | 0.12 | 86 | 1016.4 |
| 20260906013236 | 75 | 217 | 0.0 | 0.0 | 0.00 | 0.12 | 0.12 | 86 | 1016.5 |
| 20260906013135 | 75 | 217 | 0.0 | 0.0 | 0.00 | 0.12 | 0.12 | 86 | 1016.4 |
| 20260906013035 | 75 | 217 | 0.0 | 0.0 | 0.00 | 0.12 | 0.12 | 86 | 1016.4 |
| 20260906012933 | 75 | 217 | 0.0 | 0.0 | 0.00 | 0.12 | 0.12 | 86 | 1016.4 |
| 20260906012834 | 75 | 217 | 0.0 | 0.0 | 0.00 | 0.12 | 0.12 | 86 | 1016.3 |
| 20260906012731 | 75 | 217 | 0.0 | 0.0 | 0.00 | 0.12 | 0.12 | 86 | 1016.4 |
| 20260906012635 | 75 | 217 | 0.0 | 0.0 | 0.00 | 0.12 | 0.12 | 86 | 1016.3 |
| 20260906012527 | 76 | 217 | 0.0 | 0.0 | 0.00 | 0.12 | 0.12 | 86 | 1016.3 |
| 20260906012427 | 76 | 217 | 0.0 | 0.0 | 0.00 | 0.12 | 0.12 | 86 | 1016.3 |
| 20260906012327 | 76 | 217 | 0.0 | 0.0 | 0.00 | 0.12 | 0.12 | 86 | 1016.3 |
| 20260906012226 | 76 | 217 | 0.0 | 0.0 | 0.00 | 0.12 | 0.12 | 86 | 1016.3 |
| 20260906012124 | 76 | 217 | 0.0 | 0.0 | 0.00 | 0.12 | 0.12 | 86 | 1016.2 |
| 20260906012024 | 76 | 217 | 0.0 | 0.0 | 0.00 | 0.12 | 0.12 | 85 | 1016.2 |
| 20260906011920 | 76 | 217 | 0.0 | 0.0 | 0.00 | 0.12 | 0.12 | 85 | 1016.2 |
| 20260906011820 | 76 | 217 | 0.0 | 0.0 | 0.00 | 0.12 | 0.12 | 85 | 1016.2 |
| 20260906011720 | 76 | 217 | 0.0 | 0.0 | 0.00 | 0.12 | 0.12 | 85 | 1016.2 |
| 20260906011618 | 76 | 217 | 0.0 | 0.0 | 0.00 | 0.12 | 0.12 | 85 | 1016.1 |
| 20260906011518 | 76 | 217 | 0.0 | 0.0 | 0.00 | 0.12 | 0.12 | 85 | 1016.1 |
| 20260906011414 | 76 | 217 | 0.0 | 0.9 | 0.00 | 0.12 | 0.12 | 85 | 1016.1 |
| 20260906011314 | 76 | 217 | 0.0 | 0.9 | 0.00 | 0.12 | 0.12 | 85 | 1016.0 |
| 20260906011214 | 76 | 217 | 0.0 | 0.9 | 0.00 | 0.12 | 0.12 | 85 | 1016.1 |
| 20260906011113 | 76 | 217 | 0.0 | 0.9 | 0.00 | 0.12 | 0.12 | 85 | 1016.0 |
| 20260906011015 | 76 | 217 | 0.0 | 0.9 | 0.00 | 0.12 | 0.12 | 85 | 1016.1 |
| 20260906010957 | 76 | 217 | 0.0 | 0.9 | 0.00 | 0.12 | 0.12 | 85 | 1016.0 |
| 20260906010810 | 76 | 217 | 0.0 | 0.9 | 0.00 | 0.12 | 0.12 | 85 | 1016.1 |
| 20260906010708 | 76 | 217 | 0.0 | 0.9 | 0.00 | 0.12 | 0.12 | 85 | 1015.9 |
| 20260906010606 | 76 | 217 | 0.0 | 0.9 | 0.00 | 0.12 | 0.12 | 85 | 1016.0 |
| 20260906010507 | 76 | 200 | 0.0 | 0.0 | 0.00 | 0.12 | 0.12 | 85 | 1015.9 |
| 20260906010406 | 76 | 199 | 0.0 | 0.0 | 0.00 | 0.12 | 0.12 | 84 | 1015.9 |
| 20260906010306 | 76 | 199 | 0.0 | 0.0 | 0.00 | 0.12 | 0.12 | 85 | 1015.9 |
| 20260906010206 | 76 | 198 | 0.0 | 0.0 | 0.00 | 0.12 | 0.12 | 85 | 1015.9 |
| 20260906010004 | 76 | 199 | 0.0 | 0.0 | 0.00 | 0.12 | 0.12 | 85 | 1015.9 |
| 20260906005802 | 76 | 199 | 0.0 | 0.0 | 0.00 | 0.12 | 0.12 | 85 | 1015.9 |
| 20260906005659 | 76 | 199 | 0.0 | 0.0 | 0.00 | 0.12 | 0.12 | 85 | 1015.8 |
| 20260906005600 | 76 | 199 | 0.0 | 0.0 | 0.00 | 0.12 | 0.12 | 85 | 1015.9 |
| 20260906005457 | 76 | 198 | 0.0 | 0.0 | 0.00 | 0.12 | 0.12 | 85 | 1016.0 |
| 20260906005258 | 76 | 198 | 0.0 | 0.0 | 0.00 | 0.12 | 0.12 | 83 | 1015.9 |
| 20260906005155 | 76 | 199 | 0.0 | 0.0 | 0.00 | 0.12 | 0.12 | 83 | 1016.0 |
| 20260906005054 | 76 | 198 | 0.0 | 0.0 | 0.00 | 0.12 | 0.12 | 83 | 1015.8 |
| 20260906004954 | 77 | 199 | 0.0 | 0.9 | 0.00 | 0.12 | 0.12 | 83 | 1015.9 |
| 20260906004754 | 77 | 199 | 0.0 | 0.9 | 0.00 | 0.12 | 0.12 | 83 | 1016.0 |
| 20260906004656 | 77 | 198 | 0.0 | 0.9 | 0.00 | 0.12 | 0.12 | 83 | 1015.9 |
| 20260906004556 | 77 | 199 | 0.0 | 0.9 | 0.00 | 0.12 | 0.12 | 83 | 1015.9 |
| 20260906004455 | 77 | 198 | 0.0 | 0.9 | 0.00 | 0.12 | 0.12 | 83 | 1015.8 |
| 20260906004252 | 77 | 198 | 0.0 | 0.9 | 0.00 | 0.12 | 0.12 | 83 | 1015.6 |
| 20260906004151 | 77 | 198 | 0.0 | 0.9 | 0.00 | 0.12 | 0.12 | 83 | 1015.8 |
| 20260906004052 | 77 | 198 | 0.0 | 0.9 | 0.00 | 0.12 | 0.12 | 84 | 1015.8 |
| 20260906004008 | 77 | 199 | 0.0 | 0.9 | 0.00 | 0.12 | 0.12 | 83 | 1015.7 |
| 20260906003949 | 77 | 224 | 0.0 | 0.9 | 0.00 | 0.12 | 0.12 | 82 | 1015.8 |
| 20260906003750 | 77 | 219 | 0.0 | 0.9 | 0.00 | 0.12 | 0.12 | 82 | 1015.6 |
| 20260906003651 | 77 | 267 | 0.0 | 0.9 | 0.00 | 0.12 | 0.12 | 82 | 1015.8 |
| 20260906003550 | 77 | 276 | 0.0 | 0.0 | 0.00 | 0.12 | 0.12 | 82 | 1015.8 |
| 20260906003451 | 77 | 276 | 0.0 | 0.0 | 0.00 | 0.12 | 0.12 | 81 | 1015.8 |
| 20260906003259 | 77 | 276 | 0.0 | 0.0 | 0.00 | 0.12 | 0.12 | 82 | 1015.9 |
| 20260906003150 | 78 | 276 | 0.0 | 0.0 | 0.00 | 0.12 | 0.12 | 81 | 1015.8 |
| 20260906003052 | 78 | 276 | 0.0 | 0.0 | 0.00 | 0.12 | 0.12 | 81 | 1015.8 |
| 20260906002950 | 78 | 276 | 0.0 | 0.0 | 0.00 | 0.12 | 0.12 | 81 | 1015.7 |
| 20260906002750 | 78 | 276 | 0.0 | 0.0 | 0.00 | 0.12 | 0.12 | 81 | 1015.6 |
| 20260906002652 | 78 | 276 | 0.0 | 0.0 | 0.00 | 0.12 | 0.12 | 81 | 1015.6 |
| 20260906002550 | 78 | 276 | 0.0 | 0.0 | 0.00 | 0.12 | 0.12 | 81 | 1015.6 |
| 20260906002451 | 78 | 276 | 0.0 | 0.0 | 0.00 | 0.12 | 0.12 | 81 | 1015.5 |
| 20260906002246 | 78 | 276 | 0.0 | 0.0 | 0.00 | 0.12 | 0.12 | 82 | 1015.6 |
| 20260906002147 | 78 | 276 | 0.0 | 0.9 | 0.00 | 0.12 | 0.12 | 82 | 1015.6 |
| 20260906002046 | 78 | 276 | 0.0 | 0.9 | 0.00 | 0.12 | 0.12 | 82 | 1015.6 |
| 20260906001948 | 78 | 276 | 0.0 | 0.9 | 0.00 | 0.12 | 0.12 | 82 | 1015.5 |
| 20260906001748 | 78 | 276 | 0.0 | 0.9 | 0.00 | 0.12 | 0.12 | 80 | 1015.5 |
| 20260906001646 | 78 | 276 | 0.0 | 0.9 | 0.00 | 0.12 | 0.12 | 79 | 1015.5 |
| 20260906001548 | 78 | 276 | 0.0 | 0.9 | 0.00 | 0.12 | 0.12 | 79 | 1015.5 |
| 20260906001446 | 78 | 276 | 0.0 | 0.9 | 0.00 | 0.12 | 0.12 | 79 | 1015.5 |
| 20260906001246 | 78 | 276 | 0.0 | 0.9 | 0.00 | 0.12 | 0.12 | 80 | 1015.5 |
| 20260906001146 | 78 | 245 | 0.0 | 0.9 | 0.00 | 0.12 | 0.12 | 80 | 1015.5 |
| 20260906001047 | 78 | 245 | 0.0 | 0.9 | 0.00 | 0.12 | 0.12 | 80 | 1015.4 |
| 20260906000946 | 79 | 245 | 0.0 | 0.9 | 0.00 | 0.12 | 0.12 | 80 | 1015.4 |
| 20260906000747 | 79 | 245 | 0.0 | 0.9 | 0.00 | 0.12 | 0.12 | 80 | 1015.5 |
| 20260906000646 | 79 | 245 | 0.0 | 0.9 | 0.00 | 0.12 | 0.12 | 80 | 1015.4 |
| 20260906000444 | 79 | 245 | 0.0 | 0.9 | 0.00 | 0.12 | 0.12 | 80 | 1015.5 |
| 20260906000243 | 79 | 245 | 0.0 | 0.9 | 0.00 | 0.12 | 0.12 | 79 | 1015.4 |
| 20260906000142 | 79 | 245 | 0.0 | 0.9 | 0.00 | 0.12 | 0.12 | 78 | 1015.3 |
| 20260906000046 | 79 | 245 | 0.0 | 0.9 | 0.00 | 0.12 | 0.12 | 79 | 1015.4 |
| 20260905235943 | 79 | 245 | 0.0 | 0.9 | 0.00 | 0.12 | 0.12 | 79 | 1015.3 |
| 20260905235744 | 79 | 245 | 0.0 | 0.9 | 0.00 | 0.12 | 0.12 | 78 | 1015.4 |
| 20260905235643 | 79 | 238 | 0.0 | 0.9 | 0.00 | 0.12 | 0.12 | 79 | 1015.4 |
| 20260905235544 | 79 | 261 | 0.0 | 0.9 | 0.00 | 0.12 | 0.12 | 79 | 1015.4 |
| 20260905235503 | 79 | 261 | 0.0 | 0.9 | 0.00 | 0.12 | 0.12 | 79 | 1015.4 |
| 20260905235445 | 79 | 261 | 0.0 | 0.9 | 0.00 | 0.12 | 0.12 | 79 | 1015.4 |
| 20260905235242 | 79 | 261 | 0.0 | 0.9 | 0.00 | 0.12 | 0.12 | 78 | 1015.3 |
| 20260905235142 | 79 | 261 | 0.0 | 0.9 | 0.00 | 0.12 | 0.12 | 79 | 1015.4 |
| 20260905235043 | 79 | 261 | 0.0 | 0.9 | 0.00 | 0.12 | 0.12 | 79 | 1015.4 |
| 20260905234944 | 79 | 260 | 0.0 | 0.9 | 0.00 | 0.12 | 0.12 | 78 | 1015.4 |
| 20260905234844 | 79 | 260 | 0.0 | 0.9 | 0.00 | 0.12 | 0.12 | 78 | 1015.4 |
| 20260905234742 | 79 | 260 | 0.0 | 0.9 | 0.00 | 0.12 | 0.12 | 78 | 1015.4 |
| 20260905234644 | 80 | 261 | 0.0 | 0.9 | 0.00 | 0.12 | 0.12 | 78 | 1015.4 |
| 20260905234538 | 80 | 260 | 0.0 | 0.9 | 0.00 | 0.12 | 0.12 | 78 | 1015.4 |
| 20260905234457 | 80 | 261 | 0.0 | 0.9 | 0.00 | 0.12 | 0.12 | 78 | 1015.4 |
| 20260905234439 | 80 | 261 | 0.0 | 0.9 | 0.00 | 0.12 | 0.12 | 79 | 1015.4 |
| 20260905234239 | 80 | 261 | 0.0 | 0.9 | 0.00 | 0.12 | 0.12 | 78 | 1015.4 |
| 20260905234140 | 80 | 260 | 0.0 | 0.0 | 0.00 | 0.12 | 0.12 | 78 | 1015.5 |
| 20260905234039 | 80 | 260 | 0.0 | 0.0 | 0.00 | 0.12 | 0.12 | 78 | 1015.5 |
| 20260905233958 | 80 | 261 | 0.0 | 0.0 | 0.00 | 0.12 | 0.12 | 78 | 1015.3 |
| 20260905233941 | 80 | 260 | 0.0 | 1.7 | 0.00 | 0.12 | 0.12 | 78 | 1015.4 |
| 20260905233739 | 80 | 261 | 0.0 | 1.7 | 0.00 | 0.12 | 0.12 | 77 | 1015.4 |
| 20260905233640 | 80 | 260 | 0.0 | 1.7 | 0.00 | 0.12 | 0.12 | 77 | 1015.4 |
| 20260905233538 | 80 | 260 | 0.0 | 1.7 | 0.00 | 0.12 | 0.12 | 77 | 1015.4 |
| 20260905233438 | 80 | 261 | 0.0 | 1.7 | 0.00 | 0.12 | 0.12 | 77 | 1015.4 |
| 20260905233340 | 80 | 261 | 0.0 | 1.7 | 0.00 | 0.12 | 0.12 | 77 | 1015.3 |
| 20260905233238 | 81 | 260 | 0.0 | 1.7 | 0.00 | 0.12 | 0.12 | 77 | 1015.3 |
| 20260905233140 | 81 | 261 | 0.0 | 1.7 | 0.00 | 0.12 | 0.12 | 77 | 1015.3 |
| 20260905233038 | 81 | 260 | 0.0 | 1.7 | 0.00 | 0.12 | 0.12 | 77 | 1015.3 |
| 20260905232958 | 81 | 261 | 0.0 | 1.7 | 0.00 | 0.12 | 0.12 | 76 | 1015.3 |
| 20260905232940 | 81 | 260 | 0.0 | 0.9 | 0.00 | 0.12 | 0.12 | 76 | 1015.3 |
| 20260905232740 | 81 | 260 | 0.0 | 0.9 | 0.00 | 0.12 | 0.12 | 76 | 1015.3 |
| 20260905232635 | 81 | 260 | 0.0 | 0.9 | 0.00 | 0.12 | 0.12 | 76 | 1015.3 |
| 20260905232536 | 81 | 260 | 0.0 | 0.9 | 0.00 | 0.12 | 0.12 | 76 | 1015.3 |
| 20260905232435 | 81 | 260 | 0.0 | 0.9 | 0.00 | 0.12 | 0.12 | 76 | 1015.3 |
| 20260905232236 | 81 | 260 | 0.0 | 0.9 | 0.00 | 0.12 | 0.12 | 76 | 1015.2 |
| 20260905232136 | 81 | 260 | 0.0 | 0.9 | 0.00 | 0.12 | 0.12 | 75 | 1015.2 |
| 20260905232035 | 81 | 260 | 0.0 | 0.9 | 0.00 | 0.12 | 0.12 | 75 | 1015.3 |
| 20260905231935 | 82 | 260 | 0.0 | 0.9 | 0.00 | 0.12 | 0.12 | 75 | 1015.2 |
| 20260905231735 | 82 | 260 | 0.0 | 0.9 | 0.00 | 0.12 | 0.12 | 74 | 1015.1 |
| 20260905231636 | 82 | 260 | 0.0 | 0.9 | 0.00 | 0.12 | 0.12 | 75 | 1015.1 |
| 20260905231534 | 82 | 260 | 0.0 | 0.9 | 0.00 | 0.12 | 0.12 | 75 | 1015.1 |
| 20260905231435 | 82 | 259 | 0.0 | 0.0 | 0.00 | 0.12 | 0.12 | 74 | 1015.1 |
| 20260905231234 | 82 | 259 | 0.0 | 0.0 | 0.00 | 0.12 | 0.12 | 75 | 1015.0 |
| 20260905231134 | 82 | 259 | 0.0 | 0.0 | 0.00 | 0.12 | 0.12 | 75 | 1015.0 |
| 20260905231035 | 82 | 259 | 0.0 | 0.9 | 0.00 | 0.12 | 0.12 | 75 | 1015.1 |
| 20260905230935 | 82 | 259 | 0.0 | 0.9 | 0.00 | 0.12 | 0.12 | 74 | 1015.1 |
| 20260905230734 | 83 | 259 | 0.0 | 0.9 | 0.00 | 0.12 | 0.12 | 73 | 1015.1 |
| 20260905230634 | 83 | 259 | 0.0 | 0.9 | 0.00 | 0.12 | 0.12 | 73 | 1015.1 |
| 20260905230533 | 83 | 259 | 0.0 | 0.9 | 0.00 | 0.12 | 0.12 | 73 | 1015.2 |
| 20260905230431 | 83 | 259 | 0.0 | 0.9 | 0.00 | 0.12 | 0.12 | 73 | 1015.2 |
| 20260905230225 | 83 | 259 | 0.0 | 0.9 | 0.00 | 0.12 | 0.12 | 73 | 1015.2 |
| 20260905230122 | 83 | 259 | 0.0 | 0.9 | 0.00 | 0.12 | 0.12 | 74 | 1015.2 |
| 20260905230023 | 83 | 259 | 0.0 | 0.0 | 0.00 | 0.12 | 0.12 | 73 | 1015.3 |
| 20260905225944 | 83 | 259 | 0.0 | 0.9 | 0.00 | 0.12 | 0.12 | 74 | 1015.3 |
| 20260905225927 | 83 | 259 | 0.0 | 0.9 | 0.00 | 0.12 | 0.12 | 73 | 1015.2 |
| 20260905225721 | 84 | 259 | 0.0 | 0.9 | 0.00 | 0.12 | 0.12 | 72 | 1015.2 |
| 20260905225622 | 84 | 259 | 0.0 | 0.9 | 0.00 | 0.12 | 0.12 | 71 | 1015.1 |
| 20260905225521 | 84 | 259 | 0.0 | 0.9 | 0.00 | 0.12 | 0.12 | 71 | 1015.2 |
| 20260905225419 | 84 | 259 | 0.0 | 0.9 | 0.00 | 0.12 | 0.12 | 70 | 1015.2 |
| 20260905225211 | 84 | 259 | 0.0 | 0.9 | 0.00 | 0.12 | 0.12 | 70 | 1015.2 |
| 20260905225111 | 84 | 259 | 0.0 | 0.9 | 0.00 | 0.12 | 0.12 | 69 | 1015.3 |
| 20260905225010 | 85 | 259 | 0.0 | 0.9 | 0.00 | 0.12 | 0.12 | 70 | 1015.2 |
| 20260905224911 | 85 | 258 | 0.0 | 0.9 | 0.00 | 0.12 | 0.12 | 70 | 1015.2 |
| 20260905224704 | 85 | 257 | 0.0 | 0.9 | 0.00 | 0.12 | 0.12 | 69 | 1015.3 |
| 20260905224605 | 85 | 257 | 0.0 | 0.9 | 0.00 | 0.12 | 0.12 | 69 | 1015.3 |
| 20260905224504 | 85 | 257 | 0.0 | 0.9 | 0.00 | 0.12 | 0.12 | 68 | 1015.3 |
| 20260905224426 | 85 | 257 | 0.0 | 1.7 | 0.00 | 0.12 | 0.12 | 69 | 1015.3 |
| 20260905224409 | 85 | 257 | 0.0 | 2.6 | 0.00 | 0.12 | 0.12 | 69 | 1015.3 |
| 20260905224202 | 85 | 257 | 0.0 | 2.6 | 0.00 | 0.12 | 0.12 | 68 | 1015.3 |
| 20260905224104 | 86 | 257 | 0.0 | 2.6 | 0.00 | 0.12 | 0.12 | 68 | 1015.3 |
| 20260905224002 | 86 | 220 | 0.9 | 2.6 | 0.00 | 0.12 | 0.12 | 67 | 1015.2 |
| 20260905223902 | 86 | 220 | 0.9 | 2.6 | 0.00 | 0.12 | 0.12 | 67 | 1015.3 |
| 20260905223655 | 86 | 167 | 0.9 | 2.6 | 0.00 | 0.12 | 0.12 | 66 | 1015.4 |
| 20260905223553 | 86 | 167 | 0.9 | 2.6 | 0.00 | 0.12 | 0.12 | 66 | 1015.3 |
| 20260905223452 | 87 | 188 | 0.0 | 2.6 | 0.00 | 0.12 | 0.12 | 66 | 1015.3 |
| 20260905223352 | 87 | 230 | 0.0 | 2.6 | 0.00 | 0.12 | 0.12 | 67 | 1015.3 |
| 20260905223148 | 87 | 269 | 0.0 | 1.7 | 0.00 | 0.12 | 0.12 | 65 | 1015.3 |
| 20260905223046 | 87 | 269 | 0.0 | 1.7 | 0.00 | 0.12 | 0.12 | 64 | 1015.2 |
| 20260905222946 | 88 | 241 | 0.0 | 0.9 | 0.00 | 0.12 | 0.12 | 64 | 1015.3 |
| 20260905222847 | 88 | 253 | 0.0 | 2.6 | 0.00 | 0.12 | 0.12 | 64 | 1015.2 |
| 20260905222642 | 88 | 192 | 0.0 | 2.6 | 0.00 | 0.12 | 0.12 | 64 | 1015.3 |
| 20260905222542 | 88 | 192 | 0.9 | 2.6 | 0.00 | 0.12 | 0.12 | 66 | 1015.3 |
| 20260905222440 | 88 | 192 | 0.9 | 2.6 | 0.00 | 0.12 | 0.12 | 64 | 1015.4 |
| 20260905222340 | 88 | 154 | 0.9 | 2.6 | 0.00 | 0.12 | 0.12 | 64 | 1015.4 |
| 20260905222141 | 88 | 153 | 0.9 | 2.6 | 0.00 | 0.12 | 0.12 | 64 | 1015.5 |
| 20260905222039 | 88 | 262 | 0.9 | 2.6 | 0.00 | 0.12 | 0.12 | 64 | 1015.4 |
| 20260905221940 | 88 | 262 | 0.9 | 2.6 | 0.00 | 0.12 | 0.12 | 63 | 1015.4 |
| 20260905221837 | 88 | 278 | 0.9 | 2.6 | 0.00 | 0.12 | 0.12 | 63 | 1015.4 |
| 20260905221629 | 88 | 219 | 0.9 | 2.6 | 0.00 | 0.12 | 0.12 | 64 | 1015.5 |
| 20260905221528 | 88 | 193 | 0.9 | 2.6 | 0.00 | 0.12 | 0.12 | 64 | 1015.4 |
| 20260905221429 | 88 | 191 | 0.9 | 1.7 | 0.00 | 0.12 | 0.12 | 64 | 1015.3 |
| 20260905221329 | 88 | 206 | 0.9 | 2.6 | 0.00 | 0.12 | 0.12 | 64 | 1015.4 |
| 20260905221129 | 88 | 297 | 0.9 | 2.6 | 0.00 | 0.12 | 0.12 | 64 | 1015.4 |
| 20260905221026 | 88 | 288 | 0.9 | 2.6 | 0.00 | 0.12 | 0.12 | 64 | 1015.4 |
| 20260905220927 | 88 | 350 | 0.9 | 2.6 | 0.00 | 0.12 | 0.12 | 64 | 1015.4 |
| 20260905220826 | 87 | 350 | 0.9 | 2.6 | 0.00 | 0.12 | 0.12 | 65 | 1015.4 |
| 20260905220616 | 87 | 235 | 0.9 | 2.6 | 0.00 | 0.12 | 0.12 | 64 | 1015.3 |
| 20260905220518 | 87 | 288 | 0.9 | 2.6 | 0.00 | 0.12 | 0.12 | 64 | 1015.4 |
| 20260905220417 | 87 | 326 | 0.9 | 2.6 | 0.00 | 0.12 | 0.12 | 65 | 1015.4 |
| 20260905220316 | 87 | 38 | 0.0 | 1.7 | 0.00 | 0.12 | 0.12 | 65 | 1015.4 |
| 20260905220113 | 87 | 354 | 0.9 | 2.6 | 0.00 | 0.12 | 0.12 | 66 | 1015.4 |
| 20260905220010 | 87 | 354 | 0.0 | 2.6 | 0.00 | 0.12 | 0.12 | 67 | 1015.4 |
| 20260905215913 | 86 | 238 | 0.0 | 2.6 | 0.00 | 0.12 | 0.12 | 67 | 1015.4 |
| 20260905215812 | 86 | 240 | 0.0 | 2.6 | 0.00 | 0.12 | 0.12 | 67 | 1015.3 |
| 20260905215610 | 85 | 359 | 0.0 | 2.6 | 0.00 | 0.12 | 0.12 | 69 | 1015.4 |
| 20260905215508 | 85 | 359 | 0.0 | 2.6 | 0.00 | 0.12 | 0.12 | 70 | 1015.4 |
| 20260905215408 | 85 | 1 | 0.0 | 2.6 | 0.00 | 0.12 | 0.12 | 69 | 1015.5 |
| 20260905215307 | 85 | 357 | 0.0 | 2.6 | 0.00 | 0.12 | 0.12 | 70 | 1015.5 |
| 20260905215104 | 84 | 359 | 0.0 | 2.6 | 0.00 | 0.12 | 0.12 | 71 | 1015.4 |
| 20260905215002 | 84 | 359 | 0.0 | 2.6 | 0.00 | 0.12 | 0.12 | 71 | 1015.5 |
| 20260905214902 | 84 | 359 | 0.0 | 2.6 | 0.00 | 0.12 | 0.12 | 70 | 1015.4 |
| 20260905214801 | 84 | 359 | 0.9 | 2.6 | 0.00 | 0.12 | 0.12 | 70 | 1015.5 |
| 20260905214558 | 85 | 295 | 0.9 | 2.6 | 0.00 | 0.12 | 0.12 | 69 | 1015.4 |
| 20260905214456 | 85 | 283 | 0.9 | 2.6 | 0.00 | 0.12 | 0.12 | 69 | 1015.6 |
| 20260905214358 | 85 | 259 | 0.9 | 2.6 | 0.00 | 0.12 | 0.12 | 69 | 1015.6 |
| 20260905214254 | 85 | 245 | 0.9 | 2.6 | 0.00 | 0.12 | 0.12 | 70 | 1015.5 |
| 20260905214048 | 85 | 208 | 0.9 | 2.6 | 0.00 | 0.12 | 0.12 | 71 | 1015.6 |
| 20260905213950 | 85 | 208 | 0.9 | 2.6 | 0.00 | 0.12 | 0.12 | 69 | 1015.5 |
| 20260905213848 | 85 | 231 | 0.9 | 2.6 | 0.00 | 0.12 | 0.12 | 69 | 1015.5 |
| 20260905213748 | 85 | 255 | 0.9 | 2.6 | 0.00 | 0.12 | 0.12 | 70 | 1015.6 |
| 20260905213543 | 85 | 202 | 0.9 | 3.5 | 0.00 | 0.12 | 0.12 | 68 | 1015.6 |
| 20260905213442 | 85 | 226 | 0.0 | 3.5 | 0.00 | 0.12 | 0.12 | 69 | 1015.7 |
| 20260905213341 | 85 | 233 | 0.0 | 3.5 | 0.00 | 0.12 | 0.12 | 69 | 1015.6 |
| 20260905213242 | 85 | 227 | 0.9 | 3.5 | 0.00 | 0.12 | 0.12 | 69 | 1015.7 |
| 20260905212940 | 85 | 219 | 0.9 | 3.5 | 0.00 | 0.12 | 0.12 | 70 | 1015.7 |
| 20260905212840 | 85 | 177 | 0.9 | 3.5 | 0.00 | 0.12 | 0.12 | 70 | 1015.7 |
| 20260905212736 | 85 | 176 | 0.9 | 3.5 | 0.00 | 0.12 | 0.12 | 69 | 1015.7 |
| 20260905212529 | 85 | 186 | 0.9 | 2.6 | 0.00 | 0.12 | 0.12 | 69 | 1015.7 |
| 20260905212429 | 85 | 184 | 0.9 | 2.6 | 0.00 | 0.12 | 0.12 | 69 | 1015.7 |
| 20260905212328 | 85 | 212 | 0.9 | 2.6 | 0.00 | 0.12 | 0.12 | 68 | 1015.6 |
| 20260905212228 | 85 | 212 | 0.9 | 2.6 | 0.00 | 0.12 | 0.12 | 69 | 1015.7 |
| 20260905212026 | 85 | 188 | 0.9 | 2.6 | 0.00 | 0.12 | 0.12 | 70 | 1015.7 |
| 20260905211926 | 85 | 211 | 0.9 | 2.6 | 0.00 | 0.12 | 0.12 | 68 | 1015.7 |
| 20260905211827 | 85 | 255 | 0.9 | 5.2 | 0.00 | 0.12 | 0.12 | 69 | 1015.7 |
| 20260905211724 | 85 | 276 | 0.9 | 5.2 | 0.00 | 0.12 | 0.12 | 69 | 1015.8 |
| 20260905211516 | 85 | 220 | 0.9 | 5.2 | 0.00 | 0.12 | 0.12 | 68 | 1015.7 |
| 20260905211417 | 85 | 149 | 0.9 | 5.2 | 0.00 | 0.12 | 0.12 | 69 | 1015.8 |
| 20260905211316 | 85 | 356 | 0.9 | 5.2 | 0.00 | 0.12 | 0.12 | 69 | 1015.6 |
| 20260905211217 | 85 | 257 | 0.9 | 5.2 | 0.00 | 0.12 | 0.12 | 68 | 1015.6 |
| 20260905211010 | 85 | 244 | 0.9 | 5.2 | 0.00 | 0.12 | 0.12 | 68 | 1015.5 |
| 20260905210911 | 85 | 272 | 0.9 | 5.2 | 0.00 | 0.12 | 0.12 | 68 | 1015.6 |
| 20260905210810 | 85 | 166 | 0.9 | 4.3 | 0.00 | 0.12 | 0.12 | 69 | 1015.5 |
| 20260905210714 | 85 | 212 | 0.9 | 4.3 | 0.00 | 0.12 | 0.12 | 68 | 1015.5 |
| 20260905210506 | 85 | 233 | 0.9 | 4.3 | 0.00 | 0.12 | 0.12 | 68 | 1015.6 |
| 20260905210406 | 85 | 276 | 0.9 | 4.3 | 0.00 | 0.12 | 0.12 | 68 | 1015.4 |
| 20260905210306 | 85 | 256 | 0.9 | 4.3 | 0.00 | 0.12 | 0.12 | 68 | 1015.4 |
| 20260905210206 | 85 | 224 | 0.9 | 4.3 | 0.00 | 0.12 | 0.12 | 68 | 1015.4 |
| 20260905205958 | 85 | 307 | 0.9 | 3.5 | 0.00 | 0.12 | 0.12 | 68 | 1015.5 |
| 20260905205858 | 85 | 264 | 0.9 | 3.5 | 0.00 | 0.12 | 0.12 | 68 | 1015.4 |
| 20260905205758 | 85 | 293 | 0.9 | 3.5 | 0.00 | 0.12 | 0.12 | 68 | 1015.3 |
| 20260905205700 | 85 | 226 | 0.9 | 4.3 | 0.00 | 0.12 | 0.12 | 67 | 1015.3 |
| 20260905205454 | 85 | 218 | 0.9 | 4.3 | 0.00 | 0.12 | 0.12 | 67 | 1015.3 |
| 20260905205352 | 85 | 186 | 0.9 | 5.2 | 0.00 | 0.12 | 0.12 | 68 | 1015.3 |
| 20260905205252 | 85 | 97 | 0.9 | 5.2 | 0.00 | 0.12 | 0.12 | 68 | 1015.3 |
| 20260905205152 | 86 | 77 | 0.9 | 5.2 | 0.00 | 0.12 | 0.12 | 67 | 1015.3 |
| 20260905204945 | 86 | 41 | 0.9 | 5.2 | 0.00 | 0.12 | 0.12 | 67 | 1015.4 |
| 20260905204846 | 86 | 139 | 1.7 | 5.2 | 0.00 | 0.12 | 0.12 | 67 | 1015.4 |
| 20260905204747 | 86 | 177 | 1.7 | 6.1 | 0.00 | 0.12 | 0.12 | 66 | 1015.4 |
| 20260905204646 | 86 | 198 | 1.7 | 6.1 | 0.00 | 0.12 | 0.12 | 67 | 1015.4 |
| 20260905204442 | 86 | 169 | 1.7 | 6.1 | 0.00 | 0.12 | 0.12 | 67 | 1015.4 |
| 20260905204342 | 86 | 325 | 1.7 | 6.1 | 0.00 | 0.12 | 0.12 | 68 | 1015.3 |
| 20260905204243 | 86 | 258 | 1.7 | 6.1 | 0.00 | 0.12 | 0.12 | 69 | 1015.3 |
| 20260905204142 | 86 | 139 | 1.7 | 6.1 | 0.00 | 0.12 | 0.12 | 67 | 1015.3 |
| 20260905203936 | 86 | 162 | 1.7 | 6.1 | 0.00 | 0.12 | 0.12 | 67 | 1015.3 |
| 20260905203838 | 86 | 200 | 1.7 | 6.1 | 0.00 | 0.12 | 0.12 | 67 | 1015.4 |
| 20260905203736 | 86 | 226 | 2.6 | 8.7 | 0.00 | 0.12 | 0.12 | 66 | 1015.3 |
| 20260905203637 | 86 | 300 | 2.6 | 8.7 | 0.00 | 0.12 | 0.12 | 66 | 1015.3 |
| 20260905203427 | 86 | 163 | 2.6 | 8.7 | 0.00 | 0.12 | 0.12 | 69 | 1015.3 |
| 20260905203329 | 86 | 291 | 2.6 | 8.7 | 0.00 | 0.12 | 0.12 | 68 | 1015.3 |
| 20260905203229 | 86 | 210 | 2.6 | 8.7 | 0.00 | 0.12 | 0.12 | 66 | 1015.4 |
| 20260905203129 | 86 | 217 | 2.6 | 8.7 | 0.00 | 0.12 | 0.12 | 67 | 1015.4 |
| 20260905202923 | 87 | 286 | 2.6 | 8.7 | 0.00 | 0.12 | 0.12 | 67 | 1015.5 |
| 20260905202823 | 87 | 218 | 1.7 | 8.7 | 0.00 | 0.12 | 0.12 | 67 | 1015.5 |
| 20260905202723 | 87 | 169 | 1.7 | 6.1 | 0.00 | 0.12 | 0.12 | 66 | 1015.5 |
| 20260905202644 | 87 | 224 | 1.7 | 6.1 | 0.00 | 0.12 | 0.12 | 68 | 1015.6 |
| 20260905202627 | 86 | 171 | 1.7 | 4.3 | 0.00 | 0.12 | 0.12 | 71 | 1015.5 |
| 20260905202421 | 86 | 169 | 1.7 | 4.3 | 0.00 | 0.12 | 0.12 | 69 | 1015.6 |
| 20260905202317 | 86 | 171 | 1.7 | 4.3 | 0.00 | 0.12 | 0.12 | 69 | 1015.6 |
| 20260905202218 | 86 | 224 | 1.7 | 6.1 | 0.00 | 0.12 | 0.12 | 68 | 1015.6 |
| 20260905202118 | 86 | 188 | 1.7 | 6.1 | 0.00 | 0.12 | 0.12 | 70 | 1015.6 |
| 20260905201911 | 86 | 296 | 1.7 | 6.1 | 0.00 | 0.12 | 0.12 | 70 | 1015.5 |
| 20260905201811 | 86 | 265 | 1.7 | 6.1 | 0.00 | 0.12 | 0.12 | 72 | 1015.5 |
| 20260905201710 | 85 | 215 | 1.7 | 6.1 | 0.00 | 0.12 | 0.12 | 73 | 1015.4 |
| 20260905201611 | 85 | 192 | 1.7 | 6.1 | 0.00 | 0.12 | 0.12 | 72 | 1015.4 |
| 20260905201408 | 85 | 177 | 1.7 | 6.1 | 0.00 | 0.12 | 0.12 | 72 | 1015.5 |
| 20260905201310 | 85 | 215 | 1.7 | 6.1 | 0.00 | 0.12 | 0.12 | 74 | 1015.6 |
| 20260905201206 | 85 | 205 | 1.7 | 5.2 | 0.00 | 0.12 | 0.12 | 71 | 1015.8 |
| 20260905201106 | 85 | 176 | 1.7 | 5.2 | 0.00 | 0.12 | 0.12 | 73 | 1015.7 |
| 20260905200900 | 84 | 247 | 1.7 | 5.2 | 0.00 | 0.12 | 0.12 | 74 | 1015.8 |
| 20260905200800 | 84 | 214 | 1.7 | 5.2 | 0.00 | 0.12 | 0.12 | 75 | 1015.8 |
| 20260905200700 | 84 | 144 | 1.7 | 5.2 | 0.00 | 0.12 | 0.12 | 73 | 1015.7 |
| 20260905200601 | 84 | 211 | 1.7 | 5.2 | 0.00 | 0.12 | 0.12 | 77 | 1015.8 |
| 20260905200355 | 84 | 217 | 2.6 | 5.2 | 0.00 | 0.12 | 0.12 | 76 | 1015.8 |
| 20260905200252 | 84 | 289 | 1.7 | 5.2 | 0.00 | 0.12 | 0.12 | 75 | 1015.8 |
| 20260905200153 | 84 | 176 | 1.7 | 5.2 | 0.00 | 0.12 | 0.12 | 74 | 1015.7 |
| 20260905200052 | 84 | 170 | 1.7 | 5.2 | 0.00 | 0.12 | 0.12 | 74 | 1015.7 |
| 20260905195846 | 84 | 189 | 0.9 | 5.2 | 0.00 | 0.12 | 0.12 | 74 | 1015.7 |
| 20260905195746 | 84 | 254 | 0.9 | 5.2 | 0.00 | 0.12 | 0.12 | 73 | 1015.7 |
| 20260905195646 | 84 | 217 | 0.9 | 4.3 | 0.00 | 0.12 | 0.12 | 73 | 1015.8 |
| 20260905195547 | 84 | 168 | 0.9 | 4.3 | 0.00 | 0.12 | 0.12 | 73 | 1015.8 |
| 20260905195347 | 83 | 229 | 0.0 | 3.5 | 0.00 | 0.12 | 0.12 | 77 | 1015.8 |
| 20260905195245 | 83 | 169 | 0.0 | 3.5 | 0.00 | 0.12 | 0.12 | 77 | 1015.8 |
| 20260905195145 | 83 | 240 | 0.0 | 3.5 | 0.00 | 0.12 | 0.12 | 76 | 1015.8 |
| 20260905195043 | 83 | 268 | 0.0 | 3.5 | 0.00 | 0.12 | 0.12 | 75 | 1015.8 |
| 20260905194833 | 83 | 345 | 0.0 | 3.5 | 0.00 | 0.12 | 0.12 | 75 | 1015.7 |
| 20260905194734 | 83 | 341 | 0.0 | 3.5 | 0.00 | 0.12 | 0.12 | 77 | 1015.7 |
| 20260905194635 | 82 | 341 | 0.0 | 3.5 | 0.00 | 0.12 | 0.12 | 76 | 1015.6 |
| 20260905194536 | 82 | 353 | 0.0 | 2.6 | 0.00 | 0.12 | 0.12 | 77 | 1015.6 |
| 20260905194334 | 82 | 315 | 0.9 | 2.6 | 0.00 | 0.12 | 0.12 | 77 | 1015.6 |
| 20260905194231 | 82 | 306 | 0.9 | 5.2 | 0.00 | 0.12 | 0.12 | 77 | 1015.5 |
| 20260905194133 | 82 | 294 | 0.9 | 5.2 | 0.00 | 0.12 | 0.12 | 77 | 1015.5 |
| 20260905194031 | 82 | 292 | 0.9 | 5.2 | 0.00 | 0.12 | 0.12 | 78 | 1015.4 |
| 20260905193822 | 81 | 268 | 1.7 | 5.2 | 0.00 | 0.12 | 0.12 | 79 | 1015.5 |
| 20260905193723 | 81 | 169 | 1.7 | 5.2 | 0.00 | 0.12 | 0.12 | 80 | 1015.4 |
| 20260905193624 | 81 | 273 | 1.7 | 5.2 | 0.00 | 0.12 | 0.12 | 80 | 1015.4 |
| 20260905193521 | 80 | 162 | 1.7 | 5.2 | 0.00 | 0.12 | 0.12 | 80 | 1015.4 |
| 20260905193316 | 80 | 180 | 1.7 | 5.2 | 0.00 | 0.12 | 0.12 | 83 | 1015.5 |
| 20260905193217 | 80 | 172 | 1.7 | 5.2 | 0.00 | 0.12 | 0.12 | 82 | 1015.7 |
| 20260905193117 | 80 | 245 | 0.9 | 5.2 | 0.00 | 0.12 | 0.12 | 83 | 1015.6 |
| 20260905193016 | 80 | 265 | 0.9 | 5.2 | 0.00 | 0.12 | 0.12 | 82 | 1015.6 |
| 20260905192812 | 79 | 184 | 0.9 | 5.2 | 0.00 | 0.12 | 0.12 | 85 | 1015.8 |
| 20260905192710 | 79 | 270 | 0.9 | 5.2 | 0.00 | 0.12 | 0.12 | 84 | 1015.8 |
| 20260905192612 | 79 | 216 | 0.9 | 6.1 | 0.00 | 0.12 | 0.12 | 86 | 1015.8 |
| 20260905192511 | 78 | 179 | 0.9 | 6.1 | 0.00 | 0.12 | 0.12 | 86 | 1015.8 |
| 20260905192311 | 78 | 288 | 0.9 | 6.1 | 0.00 | 0.12 | 0.12 | 86 | 1015.8 |
| 20260905192208 | 78 | 288 | 1.7 | 6.1 | 0.00 | 0.12 | 0.12 | 86 | 1015.8 |
| 20260905192108 | 78 | 279 | 1.7 | 6.1 | 0.00 | 0.12 | 0.12 | 87 | 1015.8 |
| 20260905192007 | 78 | 70 | 1.7 | 6.1 | 0.00 | 0.12 | 0.12 | 87 | 1015.8 |
| 20260905191800 | 77 | 51 | 2.6 | 6.1 | 0.00 | 0.12 | 0.12 | 88 | 1016.0 |
| 20260905191704 | 77 | 231 | 2.6 | 6.1 | 0.00 | 0.12 | 0.12 | 88 | 1016.0 |
| 20260905191558 | 77 | 212 | 2.6 | 5.2 | 0.00 | 0.12 | 0.12 | 89 | 1016.0 |
| 20260905191500 | 77 | 139 | 1.7 | 5.2 | 0.00 | 0.12 | 0.12 | 91 | 1016.1 |
| 20260905191359 | 77 | 193 | 1.7 | 5.2 | 0.00 | 0.12 | 0.12 | 91 | 1016.0 |
| 20260905191259 | 77 | 247 | 1.7 | 5.2 | 0.00 | 0.12 | 0.12 | 91 | 1015.8 |
| 20260905191157 | 77 | 215 | 1.7 | 5.2 | 0.00 | 0.12 | 0.12 | 91 | 1015.6 |
| 20260905191054 | 77 | 226 | 1.7 | 4.3 | 0.00 | 0.12 | 0.12 | 91 | 1015.5 |
| 20260905190955 | 77 | 176 | 1.7 | 4.3 | 0.00 | 0.12 | 0.12 | 91 | 1015.4 |
| 20260905190853 | 77 | 203 | 1.7 | 4.3 | 0.00 | 0.12 | 0.12 | 91 | 1015.3 |
| 20260905190748 | 77 | 218 | 0.9 | 4.3 | 0.00 | 0.12 | 0.12 | 92 | 1015.2 |
| 20260905190649 | 77 | 200 | 0.9 | 3.5 | 0.00 | 0.12 | 0.12 | 93 | 1015.1 |
| 20260905190548 | 76 | 220 | 0.9 | 3.5 | 0.00 | 0.12 | 0.12 | 93 | 1015.0 |
| 20260905190518 | 76 | 218 | 0.9 | 3.5 | 0.00 | 0.12 | 0.12 | 93 | 1015.0 |
| 20260905190347 | 76 | 212 | 0.9 | 3.5 | 0.00 | 0.12 | 0.12 | 92 | 1015.1 |
| 20260905190247 | 76 | 240 | 0.0 | 3.5 | 0.00 | 0.12 | 0.12 | 92 | 1015.0 |
| 20260905190145 | 76 | 187 | 0.0 | 3.5 | 0.00 | 0.12 | 0.12 | 91 | 1014.9 |
| 20260905190043 | 76 | 187 | 0.0 | 3.5 | 0.00 | 0.12 | 0.12 | 91 | 1014.9 |
| 20260905190014 | 76 | 236 | 0.0 | 3.5 | 0.00 | 0.12 | 0.12 | 91 | 1014.8 |
| 20260905185841 | 76 | 322 | 0.0 | 0.9 | 0.00 | 0.12 | 0.12 | 92 | 1014.7 |
| 20260905185741 | 76 | 323 | 0.0 | 0.9 | 0.00 | 0.12 | 0.12 | 92 | 1014.6 |
| 20260905185638 | 76 | 236 | 0.0 | 0.9 | 0.00 | 0.12 | 0.12 | 93 | 1014.3 |
| 20260905185539 | 76 | 236 | 0.0 | 0.9 | 0.00 | 0.12 | 0.12 | 93 | 1014.4 |
| 20260905185437 | 76 | 236 | 0.0 | 0.9 | 0.00 | 0.12 | 0.12 | 92 | 1014.3 |
| 20260905185335 | 76 | 247 | 0.0 | 0.9 | 0.00 | 0.12 | 0.12 | 92 | 1014.3 |
| 20260905185235 | 76 | 115 | 0.0 | 0.0 | 0.01 | 0.12 | 0.12 | 92 | 1014.3 |
| 20260905185132 | 76 | 115 | 0.0 | 0.0 | 0.01 | 0.12 | 0.12 | 93 | 1014.5 |
| 20260905185033 | 76 | 115 | 0.0 | 1.7 | 0.03 | 0.12 | 0.12 | 92 | 1014.4 |
| 20260905184932 | 76 | 115 | 0.0 | 1.7 | 0.07 | 0.12 | 0.12 | 93 | 1014.5 |
| 20260905184829 | 76 | 115 | 0.0 | 1.7 | 0.08 | 0.12 | 0.12 | 92 | 1014.6 |
| 20260905184729 | 76 | 115 | 0.0 | 1.7 | 0.10 | 0.12 | 0.12 | 92 | 1014.6 |
| 20260905184626 | 76 | 115 | 0.0 | 1.7 | 0.10 | 0.12 | 0.12 | 92 | 1014.7 |
| 20260905184526 | 76 | 115 | 0.0 | 1.7 | 0.10 | 0.12 | 0.12 | 92 | 1014.7 |
| 20260905184508 | 76 | 114 | 0.0 | 1.7 | 0.10 | 0.12 | 0.12 | 92 | 1014.7 |
| 20260905184322 | 76 | 114 | 0.0 | 1.7 | 0.10 | 0.12 | 0.12 | 92 | 1014.8 |
| 20260905184218 | 76 | 114 | 0.0 | 1.7 | 0.10 | 0.12 | 0.12 | 92 | 1014.8 |
| 20260905184117 | 76 | 114 | 0.0 | 1.7 | 0.10 | 0.12 | 0.12 | 91 | 1014.9 |
| 20260905184018 | 76 | 115 | 0.0 | 1.7 | 0.10 | 0.12 | 0.12 | 91 | 1015.0 |
| 20260905183919 | 76 | 114 | 0.9 | 4.3 | 0.10 | 0.12 | 0.12 | 91 | 1015.1 |
| 20260905183817 | 76 | 115 | 0.9 | 4.3 | 0.10 | 0.12 | 0.12 | 91 | 1015.2 |
| 20260905183710 | 76 | 115 | 0.9 | 4.3 | 0.10 | 0.12 | 0.12 | 91 | 1015.4 |
| 20260905183611 | 76 | 117 | 0.9 | 4.3 | 0.10 | 0.12 | 0.12 | 88 | 1015.5 |
| 20260905183510 | 76 | 127 | 0.9 | 4.3 | 0.10 | 0.12 | 0.12 | 88 | 1015.7 |
| 20260905183411 | 76 | 75 | 0.9 | 4.3 | 0.10 | 0.12 | 0.12 | 89 | 1015.8 |
| 20260905183310 | 76 | 59 | 0.9 | 4.3 | 0.10 | 0.12 | 0.12 | 88 | 1015.9 |
| 20260905183210 | 77 | 59 | 0.9 | 4.3 | 0.10 | 0.12 | 0.12 | 88 | 1016.0 |
| 20260905183109 | 77 | 58 | 0.9 | 4.3 | 0.10 | 0.12 | 0.12 | 88 | 1016.0 |
| 20260905183022 | 77 | 21 | 0.9 | 4.3 | 0.10 | 0.12 | 0.12 | 88 | 1016.1 |
| 20260905183006 | 77 | 81 | 0.9 | 3.5 | 0.10 | 0.12 | 0.12 | 88 | 1016.0 |
| 20260905182805 | 77 | 311 | 0.9 | 5.2 | 0.10 | 0.12 | 0.12 | 89 | 1016.1 |
| 20260905182700 | 77 | 35 | 0.9 | 5.2 | 0.10 | 0.12 | 0.12 | 88 | 1016.0 |
| 20260905182559 | 77 | 35 | 0.9 | 5.2 | 0.10 | 0.12 | 0.12 | 87 | 1016.0 |
| 20260905182457 | 77 | 35 | 0.9 | 5.2 | 0.10 | 0.12 | 0.12 | 87 | 1015.9 |
| 20260905182400 | 77 | 18 | 0.9 | 5.2 | 0.10 | 0.12 | 0.12 | 88 | 1015.9 |
| 20260905182259 | 77 | 100 | 0.9 | 5.2 | 0.10 | 0.12 | 0.12 | 87 | 1015.9 |
| 20260905182151 | 77 | 101 | 0.9 | 6.1 | 0.10 | 0.12 | 0.12 | 87 | 1016.0 |
| 20260905182052 | 78 | 34 | 0.9 | 6.1 | 0.10 | 0.12 | 0.12 | 87 | 1016.0 |
| 20260905181953 | 78 | 58 | 0.9 | 6.1 | 0.10 | 0.12 | 0.12 | 86 | 1016.0 |
| 20260905181854 | 78 | 87 | 0.9 | 6.1 | 0.10 | 0.12 | 0.12 | 87 | 1016.0 |
| 20260905181753 | 78 | 266 | 0.9 | 6.1 | 0.10 | 0.12 | 0.12 | 87 | 1016.1 |
| 20260905181648 | 78 | 96 | 0.9 | 6.1 | 0.10 | 0.12 | 0.12 | 86 | 1016.2 |
| 20260905181546 | 78 | 183 | 0.9 | 6.1 | 0.10 | 0.12 | 0.12 | 86 | 1016.1 |
| 20260905181445 | 78 | 314 | 0.9 | 6.1 | 0.10 | 0.12 | 0.12 | 85 | 1016.3 |
| 20260905181345 | 78 | 22 | 0.9 | 6.1 | 0.10 | 0.12 | 0.12 | 85 | 1016.2 |
| 20260905181247 | 78 | 66 | 0.9 | 6.1 | 0.10 | 0.12 | 0.12 | 85 | 1016.3 |
| 20260905181144 | 78 | 248 | 0.9 | 5.2 | 0.10 | 0.12 | 0.12 | 84 | 1016.2 |
| 20260905181048 | 79 | 78 | 0.9 | 5.2 | 0.10 | 0.12 | 0.12 | 84 | 1016.4 |
| 20260905180942 | 79 | 24 | 0.9 | 5.2 | 0.10 | 0.12 | 0.12 | 83 | 1016.4 |
| 20260905180842 | 79 | 68 | 0.9 | 5.2 | 0.10 | 0.12 | 0.12 | 84 | 1016.4 |
| 20260905180740 | 79 | 8 | 0.9 | 5.2 | 0.10 | 0.12 | 0.12 | 84 | 1016.4 |
| 20260905180639 | 80 | 31 | 0.9 | 5.2 | 0.10 | 0.12 | 0.12 | 84 | 1016.5 |
| 20260905180538 | 80 | 251 | 0.9 | 5.2 | 0.10 | 0.12 | 0.12 | 83 | 1016.5 |
| 20260905180439 | 80 | 5 | 0.9 | 3.5 | 0.10 | 0.12 | 0.12 | 83 | 1016.6 |
| 20260905180336 | 80 | 50 | 0.9 | 3.5 | 0.10 | 0.12 | 0.12 | 84 | 1016.6 |
| 20260905180235 | 80 | 28 | 0.9 | 3.5 | 0.10 | 0.12 | 0.12 | 84 | 1016.5 |
| 20260905180131 | 80 | 46 | 0.9 | 3.5 | 0.10 | 0.12 | 0.12 | 82 | 1016.6 |
| 20260905180027 | 81 | 243 | 0.9 | 4.3 | 0.10 | 0.12 | 0.12 | 80 | 1016.5 |
| 20260905175927 | 81 | 57 | 0.9 | 5.2 | 0.10 | 0.12 | 0.12 | 83 | 1016.7 |
| 20260905175827 | 82 | 63 | 1.7 | 9.6 | 0.10 | 0.12 | 0.12 | 83 | 1016.7 |
| 20260905175731 | 82 | 13 | 1.7 | 9.6 | 0.10 | 0.12 | 0.12 | 82 | 1016.7 |
| 20260905175623 | 83 | 13 | 1.7 | 9.6 | 0.10 | 0.12 | 0.12 | 81 | 1016.8 |
| 20260905175521 | 83 | 359 | 2.6 | 9.6 | 0.10 | 0.12 | 0.12 | 80 | 1016.8 |
| 20260905175423 | 84 | 87 | 2.6 | 9.6 | 0.10 | 0.12 | 0.12 | 78 | 1016.9 |
| 20260905175322 | 85 | 78 | 2.6 | 9.6 | 0.09 | 0.11 | 0.12 | 77 | 1016.9 |
| 20260905175223 | 86 | 73 | 3.5 | 9.6 | 0.09 | 0.11 | 0.11 | 76 | 1017.0 |
| 20260905175111 | 87 | 110 | 3.5 | 11.3 | 0.09 | 0.11 | 0.11 | 74 | 1017.3 |
| 20260905175013 | 88 | 295 | 3.5 | 11.3 | 0.07 | 0.09 | 0.09 | 72 | 1017.2 |
| 20260905174913 | 89 | 37 | 3.5 | 11.3 | 0.03 | 0.05 | 0.06 | 69 | 1017.0 |
| 20260905174812 | 90 | 35 | 2.6 | 11.3 | 0.02 | 0.04 | 0.04 | 66 | 1016.8 |
| 20260905174714 | 90 | 77 | 2.6 | 11.3 | 0.00 | 0.02 | 0.02 | 64 | 1016.6 |
| 20260905174609 | 91 | 359 | 2.6 | 11.3 | 0.00 | 0.02 | 0.02 | 63 | 1016.4 |
| 20260905174506 | 91 | 330 | 2.6 | 11.3 | 0.00 | 0.02 | 0.02 | 64 | 1016.3 |
| 20260905174407 | 92 | 308 | 2.6 | 11.3 | 0.00 | 0.02 | 0.02 | 62 | 1016.3 |
| 20260905174306 | 92 | 32 | 1.7 | 11.3 | 0.00 | 0.02 | 0.02 | 63 | 1016.3 |
| 20260905174207 | 92 | 49 | 1.7 | 11.3 | 0.00 | 0.02 | 0.02 | 63 | 1016.2 |
| 20260905174103 | 92 | 337 | 0.9 | 5.2 | 0.00 | 0.02 | 0.02 | 63 | 1016.1 |
| 20260905174005 | 93 | 335 | 0.9 | 5.2 | 0.00 | 0.02 | 0.02 | 66 | 1016.0 |
| 20260905173901 | 93 | 321 | 1.7 | 5.2 | 0.00 | 0.02 | 0.02 | 63 | 1016.1 |
| 20260905173803 | 93 | 341 | 1.7 | 6.1 | 0.00 | 0.02 | 0.02 | 63 | 1016.1 |
| 20260905173701 | 93 | 252 | 1.7 | 7.0 | 0.00 | 0.02 | 0.02 | 62 | 1016.1 |
| 20260905173557 | 93 | 72 | 1.7 | 7.8 | 0.00 | 0.02 | 0.02 | 62 | 1016.1 |
| 20260905173454 | 93 | 336 | 1.7 | 7.8 | 0.00 | 0.02 | 0.02 | 63 | 1016.1 |
| 20260905173354 | 93 | 286 | 1.7 | 7.8 | 0.00 | 0.02 | 0.02 | 63 | 1016.1 |
| 20260905173253 | 93 | 14 | 1.7 | 7.8 | 0.00 | 0.02 | 0.02 | 63 | 1016.1 |
| 20260905173155 | 93 | 345 | 1.7 | 7.8 | 0.00 | 0.02 | 0.02 | 63 | 1016.1 |
| 20260905173048 | 93 | 51 | 1.7 | 7.8 | 0.00 | 0.02 | 0.02 | 61 | 1016.1 |
| 20260905172948 | 93 | 51 | 1.7 | 7.8 | 0.00 | 0.02 | 0.02 | 61 | 1016.2 |
| 20260905172849 | 93 | 359 | 1.7 | 7.8 | 0.00 | 0.02 | 0.02 | 61 | 1016.1 |
| 20260905172748 | 94 | 76 | 2.6 | 7.8 | 0.00 | 0.02 | 0.02 | 61 | 1016.2 |
| 20260905172649 | 94 | 55 | 1.7 | 9.6 | 0.00 | 0.02 | 0.02 | 63 | 1016.3 |
| 20260905172543 | 94 | 335 | 2.6 | 9.6 | 0.00 | 0.02 | 0.02 | 63 | 1016.3 |
| 20260905172441 | 94 | 114 | 2.6 | 9.6 | 0.00 | 0.02 | 0.02 | 61 | 1016.4 |
| 20260905172345 | 94 | 278 | 2.6 | 9.6 | 0.00 | 0.02 | 0.02 | 62 | 1016.4 |
| 20260905172242 | 94 | 174 | 2.6 | 9.6 | 0.00 | 0.02 | 0.02 | 61 | 1016.5 |
| 20260905172143 | 94 | 342 | 2.6 | 9.6 | 0.00 | 0.02 | 0.02 | 62 | 1016.5 |
| 20260905172037 | 94 | 201 | 2.6 | 9.6 | 0.00 | 0.02 | 0.02 | 61 | 1016.5 |
| 20260905171936 | 94 | 39 | 1.7 | 9.6 | 0.00 | 0.02 | 0.02 | 60 | 1016.4 |
| 20260905171837 | 94 | 264 | 1.7 | 9.6 | 0.00 | 0.02 | 0.02 | 60 | 1016.6 |
| 20260905171736 | 94 | 43 | 1.7 | 8.7 | 0.00 | 0.02 | 0.02 | 61 | 1016.6 |
| 20260905171637 | 94 | 243 | 1.7 | 8.7 | 0.00 | 0.02 | 0.02 | 61 | 1016.5 |
| 20260905171537 | 94 | 273 | 1.7 | 6.1 | 0.00 | 0.02 | 0.02 | 61 | 1016.6 |
| 20260905171434 | 94 | 249 | 1.7 | 8.7 | 0.00 | 0.02 | 0.02 | 60 | 1016.6 |
| 20260905171331 | 94 | 254 | 1.7 | 8.7 | 0.00 | 0.02 | 0.02 | 63 | 1016.6 |
| 20260905171232 | 94 | 316 | 1.7 | 8.7 | 0.00 | 0.02 | 0.02 | 62 | 1016.7 |
| 20260905171130 | 94 | 124 | 1.7 | 8.7 | 0.00 | 0.02 | 0.02 | 64 | 1016.8 |
| 20260905171026 | 94 | 9 | 2.6 | 8.7 | 0.00 | 0.02 | 0.02 | 63 | 1016.7 |
| 20260905170923 | 94 | 238 | 2.6 | 10.4 | 0.00 | 0.02 | 0.02 | 62 | 1016.8 |
| 20260905170825 | 94 | 257 | 2.6 | 10.4 | 0.00 | 0.02 | 0.02 | 62 | 1016.9 |
| 20260905170723 | 94 | 1 | 2.6 | 10.4 | 0.00 | 0.02 | 0.02 | 61 | 1016.8 |
| 20260905170625 | 94 | 6 | 2.6 | 10.4 | 0.00 | 0.02 | 0.02 | 62 | 1016.8 |
| 20260905170517 | 94 | 257 | 2.6 | 10.4 | 0.00 | 0.02 | 0.02 | 63 | 1016.8 |
| 20260905170418 | 94 | 111 | 1.7 | 10.4 | 0.00 | 0.02 | 0.02 | 61 | 1016.9 |
| 20260905170319 | 94 | 272 | 1.7 | 10.4 | 0.00 | 0.02 | 0.02 | 62 | 1016.8 |
| 20260905170218 | 94 | 287 | 1.7 | 10.4 | 0.00 | 0.02 | 0.02 | 61 | 1016.9 |
| 20260905170118 | 94 | 129 | 0.9 | 10.4 | 0.00 | 0.02 | 0.02 | 63 | 1016.9 |
| 20260905170012 | 94 | 58 | 0.9 | 8.7 | 0.00 | 0.02 | 0.02 | 62 | 1016.9 |
| 20260905165950 | 94 | 58 | 0.9 | 5.2 | 0.00 | 0.02 | 0.02 | 62 | 1017.2 |
| 20260905165813 | 94 | 309 | 0.9 | 3.5 | 0.00 | 0.02 | 0.02 | 63 | 1017.0 |
| 20260905165711 | 94 | 275 | 1.7 | 7.8 | 0.00 | 0.02 | 0.02 | 62 | 1017.0 |
| 20260905165611 | 94 | 22 | 0.9 | 7.8 | 0.00 | 0.02 | 0.02 | 64 | 1017.2 |
| 20260905165507 | 94 | 274 | 1.7 | 7.8 | 0.00 | 0.02 | 0.02 | 67 | 1017.3 |
| 20260905165405 | 94 | 71 | 1.7 | 7.8 | 0.00 | 0.02 | 0.02 | 63 | 1017.3 |
| 20260905165306 | 94 | 16 | 1.7 | 7.8 | 0.00 | 0.02 | 0.02 | 63 | 1017.2 |
| 20260905165203 | 94 | 293 | 1.7 | 7.8 | 0.00 | 0.02 | 0.02 | 62 | 1017.2 |
| 20260905165105 | 94 | 43 | 1.7 | 7.8 | 0.00 | 0.02 | 0.02 | 63 | 1017.3 |
| 20260905165000 | 93 | 68 | 1.7 | 7.8 | 0.00 | 0.02 | 0.02 | 62 | 1017.3 |
| 20260905164901 | 93 | 11 | 1.7 | 7.8 | 0.00 | 0.02 | 0.02 | 63 | 1017.3 |
| 20260905164759 | 93 | 342 | 1.7 | 7.8 | 0.00 | 0.02 | 0.02 | 62 | 1017.3 |
| 20260905164701 | 93 | 58 | 1.7 | 7.0 | 0.00 | 0.02 | 0.02 | 63 | 1017.2 |
| 20260905164559 | 93 | 44 | 1.7 | 7.0 | 0.00 | 0.02 | 0.02 | 64 | 1017.2 |
| 20260905164459 | 93 | 11 | 1.7 | 7.0 | 0.00 | 0.02 | 0.02 | 63 | 1017.2 |
| 20260905164400 | 93 | 9 | 1.7 | 7.0 | 0.00 | 0.02 | 0.02 | 64 | 1017.3 |
| 20260905164300 | 93 | 283 | 1.7 | 7.0 | 0.00 | 0.02 | 0.02 | 64 | 1017.3 |
| 20260905164159 | 93 | 97 | 1.7 | 7.0 | 0.00 | 0.02 | 0.02 | 66 | 1017.4 |
| 20260905164059 | 93 | 58 | 1.7 | 7.0 | 0.00 | 0.02 | 0.02 | 63 | 1017.4 |
| 20260905163958 | 93 | 75 | 1.7 | 6.1 | 0.00 | 0.02 | 0.02 | 63 | 1017.4 |
| 20260905163855 | 93 | 333 | 1.7 | 6.1 | 0.00 | 0.02 | 0.02 | 64 | 1017.4 |
| 20260905163757 | 93 | 343 | 1.7 | 6.1 | 0.00 | 0.02 | 0.02 | 64 | 1017.2 |
| 20260905163703 | 93 | 14 | 1.7 | 5.2 | 0.00 | 0.02 | 0.02 | 66 | 1017.3 |
| 20260905163553 | 93 | 91 | 1.7 | 5.2 | 0.00 | 0.02 | 0.02 | 64 | 1017.2 |
| 20260905163455 | 93 | 18 | 1.7 | 5.2 | 0.00 | 0.02 | 0.02 | 63 | 1017.3 |
| 20260905163354 | 93 | 260 | 0.9 | 5.2 | 0.00 | 0.02 | 0.02 | 64 | 1017.2 |
| 20260905163254 | 93 | 182 | 0.9 | 5.2 | 0.00 | 0.02 | 0.02 | 64 | 1017.3 |
| 20260905163154 | 93 | 243 | 0.9 | 5.2 | 0.00 | 0.02 | 0.02 | 66 | 1017.4 |
| 20260905163054 | 93 | 58 | 0.9 | 5.2 | 0.00 | 0.02 | 0.02 | 65 | 1017.4 |
| 20260905163003 | 93 | 330 | 0.9 | 5.2 | 0.00 | 0.02 | 0.02 | 65 | 1017.3 |
| 20260905162945 | 93 | 321 | 0.9 | 5.2 | 0.00 | 0.02 | 0.02 | 64 | 1017.3 |
| 20260905162754 | 92 | 46 | 0.9 | 5.2 | 0.00 | 0.02 | 0.02 | 66 | 1017.3 |
| 20260905162654 | 92 | 24 | 1.7 | 5.2 | 0.00 | 0.02 | 0.02 | 67 | 1017.4 |
| 20260905162555 | 92 | 24 | 1.7 | 7.0 | 0.00 | 0.02 | 0.02 | 67 | 1017.4 |
| 20260905162454 | 92 | 13 | 1.7 | 7.0 | 0.00 | 0.02 | 0.02 | 69 | 1017.5 |
| 20260905162255 | 92 | 32 | 1.7 | 7.0 | 0.00 | 0.02 | 0.02 | 65 | 1017.5 |
| 20260905162214 | 92 | 59 | 1.7 | 7.0 | 0.00 | 0.02 | 0.02 | 68 | 1017.5 |
| 20260905162047 | 92 | 44 | 0.9 | 7.0 | 0.00 | 0.02 | 0.02 | 65 | 1017.5 |
| 20260905162000 | 92 | 56 | 0.9 | 7.0 | 0.00 | 0.02 | 0.02 | 66 | 1017.5 |
| 20260905161944 | 92 | 67 | 0.9 | 7.0 | 0.00 | 0.02 | 0.02 | 64 | 1017.5 |
| 20260905161748 | 92 | 333 | 0.9 | 7.0 | 0.00 | 0.02 | 0.02 | 66 | 1017.5 |
| 20260905161648 | 92 | 4 | 0.9 | 7.0 | 0.00 | 0.02 | 0.02 | 65 | 1017.5 |
| 20260905161548 | 92 | 47 | 0.0 | 4.3 | 0.00 | 0.02 | 0.02 | 67 | 1017.5 |
| 20260905161448 | 92 | 288 | 0.0 | 4.3 | 0.00 | 0.02 | 0.02 | 65 | 1017.5 |
| 20260905161349 | 92 | 317 | 0.0 | 4.3 | 0.00 | 0.02 | 0.02 | 67 | 1017.5 |
| 20260905161247 | 92 | 19 | 0.0 | 4.3 | 0.00 | 0.02 | 0.02 | 66 | 1017.4 |
| 20260905161147 | 92 | 254 | 0.0 | 4.3 | 0.00 | 0.02 | 0.02 | 65 | 1017.4 |
| 20260905161049 | 92 | 21 | 0.9 | 5.2 | 0.00 | 0.02 | 0.02 | 65 | 1017.4 |
| 20260905160949 | 92 | 311 | 0.9 | 7.8 | 0.00 | 0.02 | 0.02 | 67 | 1017.5 |
| 20260905160743 | 92 | 41 | 0.9 | 7.8 | 0.00 | 0.02 | 0.02 | 67 | 1017.3 |
| 20260905160644 | 92 | 43 | 0.9 | 7.8 | 0.00 | 0.02 | 0.02 | 65 | 1017.4 |
| 20260905160544 | 92 | 47 | 0.9 | 7.8 | 0.00 | 0.02 | 0.02 | 66 | 1017.4 |
| 20260905160444 | 92 | 38 | 1.7 | 7.8 | 0.00 | 0.02 | 0.02 | 69 | 1017.5 |
| 20260905160244 | 92 | 25 | 1.7 | 7.8 | 0.00 | 0.02 | 0.02 | 67 | 1017.5 |
| 20260905160144 | 92 | 250 | 1.7 | 7.8 | 0.00 | 0.02 | 0.02 | 68 | 1017.5 |
| 20260905160044 | 92 | 48 | 0.9 | 7.8 | 0.00 | 0.02 | 0.02 | 65 | 1017.4 |
| 20260905155943 | 92 | 328 | 0.9 | 7.0 | 0.00 | 0.02 | 0.02 | 67 | 1017.5 |
| 20260905155845 | 92 | 48 | 0.9 | 7.0 | 0.00 | 0.02 | 0.02 | 66 | 1017.5 |
| 20260905155743 | 92 | 355 | 0.9 | 5.2 | 0.00 | 0.02 | 0.02 | 66 | 1017.5 |
| 20260905155645 | 92 | 34 | 0.9 | 5.2 | 0.00 | 0.02 | 0.02 | 67 | 1017.5 |
| 20260905155545 | 92 | 307 | 1.7 | 5.2 | 0.00 | 0.02 | 0.02 | 65 | 1017.5 |
| 20260905155443 | 92 | 269 | 0.9 | 5.2 | 0.00 | 0.02 | 0.02 | 67 | 1017.6 |
| 20260905155345 | 92 | 30 | 0.9 | 5.2 | 0.00 | 0.02 | 0.02 | 66 | 1017.6 |
| 20260905155243 | 92 | 79 | 0.9 | 5.2 | 0.00 | 0.02 | 0.02 | 67 | 1017.5 |
| 20260905155144 | 92 | 41 | 0.9 | 5.2 | 0.00 | 0.02 | 0.02 | 68 | 1017.5 |
| 20260905155044 | 92 | 5 | 0.9 | 5.2 | 0.00 | 0.02 | 0.02 | 67 | 1017.6 |
| 20260905154941 | 92 | 51 | 1.7 | 5.2 | 0.00 | 0.02 | 0.02 | 66 | 1017.6 |
| 20260905154841 | 92 | 54 | 0.9 | 5.2 | 0.00 | 0.02 | 0.02 | 67 | 1017.5 |
| 20260905154740 | 92 | 328 | 0.9 | 4.3 | 0.00 | 0.02 | 0.02 | 67 | 1017.6 |
| 20260905154641 | 92 | 49 | 0.9 | 4.3 | 0.00 | 0.02 | 0.02 | 67 | 1017.5 |
| 20260905154539 | 92 | 316 | 0.9 | 4.3 | 0.00 | 0.02 | 0.02 | 67 | 1017.5 |
| 20260905154439 | 92 | 269 | 0.9 | 4.3 | 0.00 | 0.02 | 0.02 | 70 | 1017.6 |
| 20260905154239 | 92 | 336 | 0.9 | 4.3 | 0.00 | 0.02 | 0.02 | 70 | 1017.5 |
| 20260905154139 | 92 | 246 | 0.9 | 4.3 | 0.00 | 0.02 | 0.02 | 68 | 1017.6 |
| 20260905154040 | 92 | 166 | 0.9 | 4.3 | 0.00 | 0.02 | 0.02 | 68 | 1017.5 |
| 20260905153940 | 92 | 212 | 0.0 | 3.5 | 0.00 | 0.02 | 0.02 | 69 | 1017.6 |
| 20260905153841 | 92 | 269 | 0.0 | 3.5 | 0.00 | 0.02 | 0.02 | 68 | 1017.7 |
| 20260905153739 | 92 | 259 | 0.9 | 3.5 | 0.00 | 0.02 | 0.02 | 68 | 1017.7 |
| 20260905153639 | 92 | 344 | 0.9 | 3.5 | 0.00 | 0.02 | 0.02 | 68 | 1017.6 |
| 20260905153539 | 92 | 13 | 0.9 | 3.5 | 0.00 | 0.02 | 0.02 | 69 | 1017.6 |
| 20260905153439 | 92 | 14 | 0.9 | 3.5 | 0.00 | 0.02 | 0.02 | 68 | 1017.6 |
| 20260905153339 | 92 | 13 | 0.9 | 3.5 | 0.00 | 0.02 | 0.02 | 68 | 1017.6 |
| 20260905153241 | 92 | 338 | 0.9 | 3.5 | 0.00 | 0.02 | 0.02 | 68 | 1017.5 |
| 20260905153140 | 92 | 326 | 0.9 | 4.3 | 0.00 | 0.02 | 0.02 | 72 | 1017.6 |
| 20260905153036 | 92 | 242 | 0.9 | 4.3 | 0.00 | 0.02 | 0.02 | 70 | 1017.7 |
| 20260905152956 | 92 | 285 | 0.9 | 4.3 | 0.00 | 0.02 | 0.02 | 68 | 1017.7 |
| 20260905152937 | 92 | 226 | 0.9 | 4.3 | 0.00 | 0.02 | 0.02 | 70 | 1017.8 |
| 20260905152735 | 92 | 200 | 0.9 | 4.3 | 0.00 | 0.02 | 0.02 | 68 | 1017.8 |
| 20260905152636 | 92 | 56 | 0.9 | 4.3 | 0.00 | 0.02 | 0.02 | 71 | 1017.8 |
| 20260905152535 | 92 | 277 | 0.9 | 4.3 | 0.00 | 0.02 | 0.02 | 69 | 1017.8 |
| 20260905152436 | 92 | 287 | 0.9 | 4.3 | 0.00 | 0.02 | 0.02 | 68 | 1017.9 |
| 20260905152337 | 92 | 236 | 0.9 | 4.3 | 0.00 | 0.02 | 0.02 | 69 | 1017.7 |
| 20260905152236 | 92 | 1 | 0.9 | 4.3 | 0.00 | 0.02 | 0.02 | 67 | 1017.7 |
| 20260905152135 | 92 | 359 | 0.0 | 4.3 | 0.00 | 0.02 | 0.02 | 71 | 1017.7 |
| 20260905152036 | 92 | 17 | 0.0 | 4.3 | 0.00 | 0.02 | 0.02 | 69 | 1017.8 |
| 20260905151935 | 92 | 316 | 0.0 | 1.7 | 0.00 | 0.02 | 0.02 | 71 | 1017.8 |
| 20260905151735 | 91 | 155 | 0.0 | 1.7 | 0.00 | 0.02 | 0.02 | 69 | 1017.7 |
| 20260905151636 | 91 | 200 | 0.0 | 1.7 | 0.00 | 0.02 | 0.02 | 69 | 1017.6 |
| 20260905151535 | 91 | 65 | 0.0 | 0.9 | 0.00 | 0.02 | 0.02 | 71 | 1017.7 |
| 20260905151435 | 91 | 59 | 0.0 | 0.9 | 0.00 | 0.02 | 0.02 | 71 | 1017.7 |
| 20260905151237 | 91 | 160 | 0.0 | 1.7 | 0.00 | 0.02 | 0.02 | 70 | 1017.6 |
| 20260905151132 | 91 | 72 | 0.0 | 1.7 | 0.00 | 0.02 | 0.02 | 70 | 1017.6 |
| 20260905151033 | 91 | 278 | 0.0 | 2.6 | 0.00 | 0.02 | 0.02 | 72 | 1017.6 |
| 20260905150931 | 90 | 272 | 0.9 | 4.3 | 0.00 | 0.02 | 0.02 | 71 | 1017.6 |
| 20260905150733 | 90 | 13 | 0.9 | 4.3 | 0.00 | 0.02 | 0.02 | 72 | 1017.6 |
| 20260905150631 | 90 | 348 | 0.9 | 4.3 | 0.00 | 0.02 | 0.02 | 72 | 1017.7 |
| 20260905150531 | 90 | 348 | 0.9 | 4.3 | 0.00 | 0.02 | 0.02 | 71 | 1017.6 |
| 20260905150431 | 90 | 262 | 0.9 | 4.3 | 0.00 | 0.02 | 0.02 | 73 | 1017.6 |
| 20260905150233 | 90 | 233 | 0.9 | 4.3 | 0.00 | 0.02 | 0.02 | 75 | 1017.6 |
| 20260905150131 | 90 | 231 | 1.7 | 4.3 | 0.00 | 0.02 | 0.02 | 71 | 1017.6 |
| 20260905150031 | 89 | 221 | 1.7 | 5.2 | 0.00 | 0.02 | 0.02 | 71 | 1017.6 |
| 20260905145933 | 89 | 192 | 0.9 | 5.2 | 0.00 | 0.02 | 0.02 | 74 | 1017.6 |
| 20260905145731 | 89 | 212 | 1.7 | 5.2 | 0.00 | 0.02 | 0.02 | 73 | 1017.7 |
| 20260905145633 | 89 | 213 | 1.7 | 5.2 | 0.00 | 0.02 | 0.02 | 74 | 1017.7 |
| 20260905145533 | 89 | 281 | 1.7 | 5.2 | 0.00 | 0.02 | 0.02 | 73 | 1017.7 |
| 20260905145432 | 89 | 302 | 1.7 | 5.2 | 0.00 | 0.02 | 0.02 | 75 | 1017.6 |
| 20260905145226 | 89 | 240 | 1.7 | 5.2 | 0.00 | 0.02 | 0.02 | 74 | 1017.7 |
| 20260905145127 | 89 | 219 | 0.9 | 5.2 | 0.00 | 0.02 | 0.02 | 74 | 1017.7 |
| 20260905145026 | 88 | 161 | 0.9 | 3.5 | 0.00 | 0.02 | 0.02 | 75 | 1017.7 |
| 20260905144925 | 88 | 277 | 0.9 | 3.5 | 0.00 | 0.02 | 0.02 | 75 | 1017.7 |
| 20260905144723 | 88 | 186 | 0.9 | 3.5 | 0.00 | 0.02 | 0.02 | 77 | 1017.8 |
| 20260905144625 | 88 | 171 | 0.9 | 2.6 | 0.00 | 0.02 | 0.02 | 78 | 1017.7 |
| 20260905144522 | 88 | 132 | 0.9 | 2.6 | 0.00 | 0.02 | 0.02 | 77 | 1017.8 |
| 20260905144443 | 88 | 145 | 0.9 | 4.3 | 0.00 | 0.02 | 0.02 | 77 | 1017.9 |
| 20260905144424 | 88 | 266 | 1.7 | 4.3 | 0.00 | 0.02 | 0.02 | 76 | 1017.9 |
| 20260905144214 | 87 | 276 | 1.7 | 4.3 | 0.00 | 0.02 | 0.02 | 78 | 1017.9 |
| 20260905144113 | 87 | 217 | 1.7 | 4.3 | 0.00 | 0.02 | 0.02 | 78 | 1017.9 |
| 20260905144014 | 87 | 186 | 1.7 | 4.3 | 0.00 | 0.02 | 0.02 | 77 | 1017.9 |
| 20260905143936 | 87 | 134 | 1.7 | 4.3 | 0.00 | 0.02 | 0.02 | 77 | 1017.9 |
| 20260905143919 | 87 | 183 | 1.7 | 4.3 | 0.00 | 0.02 | 0.02 | 79 | 1017.8 |
| 20260905143711 | 87 | 147 | 1.7 | 4.3 | 0.00 | 0.02 | 0.02 | 76 | 1017.9 |
| 20260905143613 | 87 | 192 | 1.7 | 4.3 | 0.00 | 0.02 | 0.02 | 76 | 1017.9 |
| 20260905143509 | 87 | 214 | 0.9 | 4.3 | 0.00 | 0.02 | 0.02 | 78 | 1018.0 |
| 20260905143408 | 87 | 181 | 0.9 | 4.3 | 0.00 | 0.02 | 0.02 | 77 | 1018.0 |
| 20260905143308 | 87 | 164 | 0.9 | 4.3 | 0.00 | 0.02 | 0.02 | 78 | 1018.0 |
| 20260905143206 | 87 | 146 | 0.9 | 4.3 | 0.00 | 0.02 | 0.02 | 77 | 1018.0 |
| 20260905143105 | 87 | 179 | 0.9 | 3.5 | 0.00 | 0.02 | 0.02 | 77 | 1018.0 |
| 20260905143003 | 87 | 162 | 0.9 | 3.5 | 0.00 | 0.02 | 0.02 | 77 | 1017.9 |
| 20260905142902 | 87 | 165 | 0.9 | 3.5 | 0.00 | 0.02 | 0.02 | 77 | 1018.0 |
| 20260905142803 | 87 | 219 | 0.9 | 3.5 | 0.00 | 0.02 | 0.02 | 76 | 1017.9 |
| 20260905142657 | 86 | 182 | 0.9 | 3.5 | 0.00 | 0.02 | 0.02 | 78 | 1017.9 |
| 20260905142557 | 86 | 213 | 0.9 | 5.2 | 0.00 | 0.02 | 0.02 | 77 | 1017.9 |
| 20260905142456 | 86 | 215 | 0.9 | 5.2 | 0.00 | 0.02 | 0.02 | 78 | 1017.8 |
| 20260905142355 | 86 | 206 | 0.9 | 5.2 | 0.00 | 0.02 | 0.02 | 78 | 1017.9 |
| 20260905142256 | 86 | 264 | 0.9 | 5.2 | 0.00 | 0.02 | 0.02 | 79 | 1017.9 |
| 20260905142154 | 86 | 196 | 0.9 | 5.2 | 0.00 | 0.02 | 0.02 | 78 | 1017.8 |
| 20260905142053 | 86 | 216 | 0.9 | 5.2 | 0.00 | 0.02 | 0.02 | 79 | 1017.9 |
| 20260905141955 | 86 | 250 | 1.7 | 5.2 | 0.00 | 0.02 | 0.02 | 78 | 1017.9 |
| 20260905141851 | 86 | 141 | 1.7 | 5.2 | 0.00 | 0.02 | 0.02 | 79 | 1017.8 |
| 20260905141750 | 86 | 263 | 1.7 | 5.2 | 0.00 | 0.02 | 0.02 | 80 | 1017.8 |
| 20260905141645 | 86 | 245 | 1.7 | 5.2 | 0.00 | 0.02 | 0.02 | 79 | 1017.8 |
| 20260905141545 | 86 | 217 | 1.7 | 5.2 | 0.00 | 0.02 | 0.02 | 80 | 1017.7 |
| 20260905141444 | 86 | 216 | 1.7 | 5.2 | 0.00 | 0.02 | 0.02 | 80 | 1017.8 |
| 20260905141343 | 86 | 197 | 0.9 | 5.2 | 0.00 | 0.02 | 0.02 | 80 | 1017.7 |
| 20260905141244 | 85 | 190 | 1.7 | 5.2 | 0.00 | 0.02 | 0.02 | 79 | 1017.8 |
| 20260905141139 | 85 | 197 | 1.7 | 5.2 | 0.00 | 0.02 | 0.02 | 80 | 1017.8 |
| 20260905141039 | 85 | 213 | 0.9 | 5.2 | 0.00 | 0.02 | 0.02 | 79 | 1017.7 |
| 20260905140941 | 85 | 180 | 0.9 | 3.5 | 0.00 | 0.02 | 0.02 | 80 | 1017.8 |
| 20260905140841 | 85 | 270 | 0.9 | 3.5 | 0.00 | 0.02 | 0.02 | 80 | 1017.8 |
| 20260905140738 | 85 | 219 | 0.9 | 3.5 | 0.00 | 0.02 | 0.02 | 81 | 1017.7 |
| 20260905140633 | 85 | 222 | 0.9 | 3.5 | 0.00 | 0.02 | 0.02 | 80 | 1017.7 |
| 20260905140533 | 85 | 201 | 0.9 | 3.5 | 0.00 | 0.02 | 0.02 | 80 | 1017.8 |
| 20260905140435 | 85 | 206 | 0.9 | 3.5 | 0.00 | 0.02 | 0.02 | 81 | 1017.7 |
| 20260905140334 | 85 | 227 | 0.9 | 3.5 | 0.00 | 0.02 | 0.02 | 81 | 1017.7 |
| 20260905140231 | 85 | 187 | 0.9 | 3.5 | 0.00 | 0.02 | 0.02 | 81 | 1017.7 |
| 20260905140125 | 85 | 224 | 0.9 | 2.6 | 0.00 | 0.02 | 0.02 | 81 | 1017.6 |
| 20260905140025 | 85 | 186 | 0.9 | 2.6 | 0.00 | 0.02 | 0.02 | 82 | 1017.6 |
| 20260905135925 | 85 | 211 | 0.9 | 2.6 | 0.00 | 0.02 | 0.02 | 83 | 1017.5 |
| 20260905135826 | 85 | 221 | 0.0 | 2.6 | 0.00 | 0.02 | 0.02 | 82 | 1017.6 |
| 20260905135725 | 85 | 188 | 0.9 | 2.6 | 0.00 | 0.02 | 0.02 | 83 | 1017.6 |
| 20260905135624 | 84 | 172 | 0.9 | 2.6 | 0.00 | 0.02 | 0.02 | 81 | 1017.5 |
| 20260905135524 | 84 | 167 | 0.9 | 3.5 | 0.00 | 0.02 | 0.02 | 81 | 1017.5 |
| 20260905135423 | 84 | 184 | 0.9 | 3.5 | 0.00 | 0.02 | 0.02 | 83 | 1017.5 |
| 20260905135220 | 84 | 182 | 0.9 | 3.5 | 0.00 | 0.02 | 0.02 | 83 | 1017.7 |
| 20260905135115 | 84 | 193 | 0.9 | 3.5 | 0.00 | 0.02 | 0.02 | 83 | 1017.6 |
| 20260905135015 | 83 | 167 | 0.9 | 3.5 | 0.00 | 0.02 | 0.02 | 83 | 1017.6 |
| 20260905134915 | 83 | 242 | 0.9 | 3.5 | 0.00 | 0.02 | 0.02 | 84 | 1017.7 |
| 20260905134814 | 83 | 237 | 0.9 | 3.5 | 0.00 | 0.02 | 0.02 | 84 | 1017.7 |
| 20260905134714 | 83 | 245 | 0.9 | 3.5 | 0.00 | 0.02 | 0.02 | 84 | 1017.7 |
| 20260905134611 | 83 | 229 | 0.9 | 3.5 | 0.00 | 0.02 | 0.02 | 84 | 1017.6 |
| 20260905134511 | 83 | 205 | 0.9 | 2.6 | 0.00 | 0.02 | 0.02 | 85 | 1017.6 |
| 20260905134409 | 83 | 205 | 0.9 | 2.6 | 0.00 | 0.02 | 0.02 | 85 | 1017.6 |
| 20260905134208 | 83 | 203 | 0.9 | 2.6 | 0.00 | 0.02 | 0.02 | 86 | 1017.6 |
| 20260905134101 | 83 | 171 | 0.9 | 2.6 | 0.00 | 0.02 | 0.02 | 86 | 1017.6 |
| 20260905134001 | 82 | 159 | 0.9 | 2.6 | 0.00 | 0.02 | 0.02 | 87 | 1017.7 |
| 20260905133901 | 82 | 173 | 0.9 | 2.6 | 0.00 | 0.02 | 0.02 | 87 | 1017.6 |
| 20260905133801 | 82 | 161 | 0.9 | 2.6 | 0.00 | 0.02 | 0.02 | 87 | 1017.6 |
| 20260905133702 | 82 | 175 | 0.9 | 1.7 | 0.00 | 0.02 | 0.02 | 88 | 1017.7 |
| 20260905133602 | 82 | 285 | 0.0 | 1.7 | 0.00 | 0.02 | 0.02 | 88 | 1017.7 |
| 20260905133501 | 82 | 203 | 0.0 | 1.7 | 0.00 | 0.02 | 0.02 | 88 | 1017.7 |
| 20260905133358 | 82 | 204 | 0.0 | 1.7 | 0.00 | 0.02 | 0.02 | 88 | 1017.7 |
| 20260905133259 | 82 | 171 | 0.0 | 1.7 | 0.00 | 0.02 | 0.02 | 88 | 1017.6 |
| 20260905133155 | 81 | 163 | 0.0 | 1.7 | 0.00 | 0.02 | 0.02 | 89 | 1017.6 |
| 20260905133053 | 81 | 171 | 0.0 | 1.7 | 0.00 | 0.02 | 0.02 | 89 | 1017.7 |
| 20260905132953 | 81 | 171 | 0.0 | 0.9 | 0.00 | 0.02 | 0.02 | 89 | 1017.6 |
| 20260905132853 | 81 | 166 | 0.0 | 0.9 | 0.00 | 0.02 | 0.02 | 89 | 1017.5 |
| 20260905132752 | 81 | 203 | 0.0 | 0.9 | 0.00 | 0.02 | 0.02 | 90 | 1017.6 |
| 20260905132650 | 80 | 203 | 0.0 | 0.9 | 0.00 | 0.02 | 0.02 | 90 | 1017.6 |
| 20260905132547 | 80 | 203 | 0.0 | 0.9 | 0.00 | 0.02 | 0.02 | 90 | 1017.6 |
| 20260905132447 | 80 | 194 | 0.0 | 0.9 | 0.00 | 0.02 | 0.02 | 90 | 1017.5 |
| 20260905132347 | 80 | 226 | 0.0 | 0.9 | 0.00 | 0.02 | 0.02 | 91 | 1017.5 |
| 20260905132249 | 80 | 273 | 0.0 | 0.9 | 0.00 | 0.02 | 0.02 | 91 | 1017.5 |
| 20260905132143 | 79 | 272 | 0.0 | 0.9 | 0.00 | 0.02 | 0.02 | 91 | 1017.4 |
| 20260905132041 | 79 | 166 | 0.0 | 0.9 | 0.00 | 0.02 | 0.02 | 92 | 1017.5 |
| 20260905131943 | 79 | 213 | 0.0 | 0.9 | 0.00 | 0.02 | 0.02 | 91 | 1017.5 |
| 20260905131918 | 79 | 204 | 0.0 | 0.9 | 0.00 | 0.02 | 0.02 | 91 | 1017.4 |
| 20260905131739 | 79 | 207 | 0.0 | 0.9 | 0.00 | 0.02 | 0.02 | 92 | 1017.4 |
| 20260905131638 | 79 | 217 | 0.0 | 1.7 | 0.00 | 0.02 | 0.02 | 92 | 1017.4 |
| 20260905131537 | 79 | 217 | 0.0 | 1.7 | 0.00 | 0.02 | 0.02 | 92 | 1017.5 |
| 20260905131436 | 79 | 217 | 0.0 | 1.7 | 0.00 | 0.02 | 0.02 | 92 | 1017.4 |
| 20260905131334 | 79 | 217 | 0.0 | 1.7 | 0.00 | 0.02 | 0.02 | 92 | 1017.4 |
| 20260905131234 | 78 | 215 | 0.0 | 1.7 | 0.00 | 0.02 | 0.02 | 92 | 1017.5 |
| 20260905131131 | 78 | 214 | 0.0 | 1.7 | 0.00 | 0.02 | 0.02 | 92 | 1017.4 |
| 20260905131025 | 78 | 218 | 0.0 | 1.7 | 0.00 | 0.02 | 0.02 | 92 | 1017.4 |
| 20260905130923 | 78 | 218 | 0.0 | 1.7 | 0.00 | 0.02 | 0.02 | 92 | 1017.5 |
| 20260905130824 | 78 | 213 | 0.0 | 1.7 | 0.00 | 0.02 | 0.02 | 92 | 1017.4 |
| 20260905130724 | 78 | 205 | 0.0 | 1.7 | 0.00 | 0.02 | 0.02 | 93 | 1017.5 |
| 20260905130624 | 78 | 160 | 0.0 | 1.7 | 0.00 | 0.02 | 0.02 | 93 | 1017.5 |
| 20260905130519 | 78 | 184 | 0.0 | 1.7 | 0.00 | 0.02 | 0.02 | 93 | 1017.5 |
| 20260905130418 | 78 | 202 | 0.0 | 1.7 | 0.00 | 0.02 | 0.02 | 93 | 1017.5 |
| 20260905130318 | 77 | 212 | 0.0 | 1.7 | 0.00 | 0.02 | 0.02 | 93 | 1017.5 |
| 20260905130219 | 77 | 198 | 0.0 | 1.7 | 0.00 | 0.02 | 0.02 | 94 | 1017.5 |
| 20260905130118 | 77 | 221 | 0.0 | 1.7 | 0.00 | 0.02 | 0.02 | 94 | 1017.6 |
| 20260905130013 | 77 | 221 | 0.9 | 2.6 | 0.00 | 0.02 | 0.02 | 95 | 1017.5 |
| 20260905125912 | 77 | 221 | 0.9 | 2.6 | 0.00 | 0.02 | 0.02 | 94 | 1017.5 |
| 20260905125811 | 77 | 221 | 0.9 | 2.6 | 0.00 | 0.02 | 0.02 | 94 | 1017.5 |
| 20260905125711 | 77 | 221 | 0.9 | 3.5 | 0.00 | 0.02 | 0.02 | 94 | 1017.5 |
| 20260905125611 | 77 | 234 | 0.9 | 3.5 | 0.00 | 0.02 | 0.02 | 95 | 1017.5 |
| 20260905125509 | 76 | 197 | 0.9 | 3.5 | 0.00 | 0.02 | 0.02 | 95 | 1017.5 |
| 20260905125411 | 76 | 215 | 0.9 | 3.5 | 0.00 | 0.02 | 0.02 | 95 | 1017.5 |
| 20260905125308 | 76 | 209 | 0.9 | 3.5 | 0.00 | 0.02 | 0.02 | 96 | 1017.5 |
| 20260905125207 | 76 | 170 | 0.9 | 3.5 | 0.00 | 0.02 | 0.02 | 96 | 1017.5 |
| 20260905125105 | 76 | 201 | 0.9 | 3.5 | 0.00 | 0.02 | 0.02 | 96 | 1017.5 |
| 20260905125002 | 76 | 162 | 0.9 | 3.5 | 0.00 | 0.02 | 0.02 | 96 | 1017.5 |
| 20260905124903 | 75 | 247 | 0.9 | 3.5 | 0.00 | 0.02 | 0.02 | 97 | 1017.5 |
| 20260905124801 | 75 | 193 | 0.0 | 3.5 | 0.00 | 0.02 | 0.02 | 97 | 1017.6 |
| 20260905124702 | 75 | 185 | 0.0 | 2.6 | 0.00 | 0.02 | 0.02 | 98 | 1017.5 |
| 20260905124559 | 75 | 187 | 0.0 | 2.6 | 0.00 | 0.02 | 0.02 | 98 | 1017.5 |
| 20260905124455 | 75 | 179 | 0.0 | 1.7 | 0.00 | 0.02 | 0.02 | 98 | 1017.6 |
| 20260905124353 | 75 | 235 | 0.0 | 1.7 | 0.00 | 0.02 | 0.02 | 98 | 1017.6 |
| 20260905124253 | 75 | 189 | 0.0 | 1.7 | 0.00 | 0.02 | 0.02 | 98 | 1017.5 |
| 20260905124154 | 75 | 224 | 0.0 | 1.7 | 0.00 | 0.02 | 0.02 | 99 | 1017.6 |
| 20260905124054 | 74 | 218 | 0.0 | 1.7 | 0.00 | 0.02 | 0.02 | 99 | 1017.6 |
| 20260905123950 | 74 | 197 | 0.0 | 1.7 | 0.00 | 0.02 | 0.02 | 99 | 1017.6 |
| 20260905123856 | 74 | 220 | 0.0 | 1.7 | 0.00 | 0.02 | 0.02 | 100 | 1017.6 |
| 20260905123838 | 74 | 162 | 0.0 | 1.7 | 0.00 | 0.02 | 0.02 | 100 | 1017.5 |
| 20260905123647 | 74 | 229 | 0.0 | 0.0 | 0.00 | 0.02 | 0.02 | 100 | 1017.7 |
| 20260905123548 | 74 | 309 | 0.0 | 0.0 | 0.00 | 0.02 | 0.02 | 99 | 1017.5 |
| 20260905123442 | 74 | 309 | 0.0 | 0.0 | 0.00 | 0.02 | 0.02 | 99 | 1017.6 |
| 20260905123341 | 74 | 309 | 0.0 | 0.0 | 0.00 | 0.02 | 0.02 | 99 | 1017.6 |
| 20260905123141 | 74 | 309 | 0.0 | 0.0 | 0.00 | 0.02 | 0.02 | 99 | 1017.6 |
| 20260905123041 | 74 | 309 | 0.0 | 0.0 | 0.00 | 0.02 | 0.02 | 99 | 1017.6 |
| 20260905122938 | 74 | 309 | 0.0 | 0.0 | 0.00 | 0.02 | 0.02 | 99 | 1017.6 |
| 20260905122843 | 74 | 309 | 0.0 | 0.0 | 0.00 | 0.02 | 0.02 | 99 | 1017.5 |
| 20260905122825 | 74 | 309 | 0.0 | 0.0 | 0.00 | 0.02 | 0.02 | 99 | 1017.5 |
| 20260905122636 | 73 | 309 | 0.0 | 0.0 | 0.00 | 0.02 | 0.02 | 99 | 1017.5 |
| 20260905122535 | 73 | 309 | 0.0 | 0.0 | 0.00 | 0.02 | 0.02 | 99 | 1017.5 |
| 20260905122437 | 73 | 309 | 0.0 | 0.0 | 0.00 | 0.02 | 0.02 | 99 | 1017.5 |
| 20260905122338 | 73 | 309 | 0.0 | 0.0 | 0.00 | 0.02 | 0.02 | 100 | 1017.5 |
| 20260905122320 | 73 | 309 | 0.0 | 0.0 | 0.00 | 0.02 | 0.02 | 100 | 1017.5 |
| 20260905122131 | 73 | 309 | 0.0 | 0.0 | 0.00 | 0.02 | 0.02 | 100 | 1017.5 |
| 20260905122030 | 73 | 309 | 0.0 | 0.0 | 0.00 | 0.02 | 0.02 | 100 | 1017.6 |
| 20260905121930 | 73 | 309 | 0.0 | 0.0 | 0.00 | 0.02 | 0.02 | 100 | 1017.5 |
| 20260905121834 | 73 | 309 | 0.0 | 0.0 | 0.00 | 0.02 | 0.02 | 100 | 1017.5 |
| 20260905121814 | 73 | 309 | 0.0 | 0.0 | 0.00 | 0.02 | 0.02 | 100 | 1017.5 |
| 20260905121626 | 73 | 309 | 0.0 | 0.0 | 0.00 | 0.02 | 0.02 | 100 | 1017.5 |
| 20260905121524 | 72 | 309 | 0.0 | 0.0 | 0.00 | 0.02 | 0.02 | 100 | 1017.5 |
| 20260905121417 | 72 | 309 | 0.0 | 0.0 | 0.00 | 0.02 | 0.02 | 100 | 1017.5 |
| 20260905121318 | 72 | 309 | 0.0 | 0.0 | 0.00 | 0.02 | 0.02 | 100 | 1017.6 |
| 20260905121218 | 72 | 309 | 0.0 | 0.9 | 0.00 | 0.02 | 0.02 | 100 | 1017.6 |
| 20260905121118 | 72 | 320 | 0.0 | 0.9 | 0.00 | 0.02 | 0.02 | 100 | 1017.6 |
| 20260905121017 | 72 | 320 | 0.0 | 0.9 | 0.00 | 0.02 | 0.02 | 100 | 1017.7 |
| 20260905120914 | 72 | 320 | 0.0 | 0.9 | 0.00 | 0.02 | 0.02 | 100 | 1017.6 |
| 20260905120810 | 72 | 320 | 0.0 | 0.9 | 0.00 | 0.02 | 0.02 | 100 | 1017.7 |
| 20260905120712 | 72 | 320 | 0.0 | 0.9 | 0.00 | 0.02 | 0.02 | 100 | 1017.6 |
| 20260905120613 | 72 | 320 | 0.0 | 0.9 | 0.00 | 0.02 | 0.02 | 100 | 1017.6 |
| 20260905120513 | 72 | 320 | 0.0 | 0.9 | 0.00 | 0.02 | 0.02 | 100 | 1017.6 |
| 20260905120412 | 72 | 219 | 0.0 | 0.9 | 0.00 | 0.02 | 0.02 | 100 | 1017.5 |
| 20260905120309 | 72 | 220 | 0.0 | 0.9 | 0.00 | 0.02 | 0.02 | 100 | 1017.6 |
| 20260905120209 | 72 | 225 | 0.0 | 0.9 | 0.00 | 0.02 | 0.02 | 100 | 1017.6 |
| 20260905120108 | 71 | 262 | 0.0 | 0.9 | 0.00 | 0.02 | 0.02 | 100 | 1017.5 |
| 20260905120005 | 71 | 195 | 0.0 | 0.9 | 0.00 | 0.02 | 0.02 | 100 | 1017.5 |
| 20260905115859 | 71 | 183 | 0.0 | 0.9 | 0.00 | 0.02 | 0.02 | 100 | 1017.5 |
| 20260905115800 | 71 | 326 | 0.0 | 0.0 | 0.00 | 0.02 | 0.02 | 100 | 1017.5 |
| 20260905115600 | 71 | 326 | 0.0 | 0.0 | 0.00 | 0.02 | 0.02 | 100 | 1017.5 |
| 20260905115505 | 71 | 326 | 0.0 | 0.0 | 0.00 | 0.02 | 0.02 | 100 | 1017.4 |
| 20260905115357 | 71 | 326 | 0.0 | 0.0 | 0.00 | 0.02 | 0.02 | 100 | 1017.4 |
| 20260905115257 | 71 | 326 | 0.0 | 0.0 | 0.00 | 0.02 | 0.02 | 100 | 1017.5 |
| 20260905115158 | 71 | 326 | 0.0 | 0.0 | 0.00 | 0.02 | 0.02 | 100 | 1017.5 |
| 20260905115056 | 71 | 8 | 0.0 | 0.0 | 0.00 | 0.02 | 0.02 | 100 | 1017.4 |
| 20260905114954 | 71 | 8 | 0.0 | 0.0 | 0.00 | 0.02 | 0.02 | 100 | 1017.4 |
| 20260905114852 | 71 | 8 | 0.0 | 0.0 | 0.00 | 0.02 | 0.02 | 100 | 1017.3 |
| 20260905114751 | 71 | 8 | 0.0 | 0.0 | 0.00 | 0.02 | 0.02 | 100 | 1017.3 |
| 20260905114652 | 71 | 8 | 0.0 | 0.0 | 0.00 | 0.02 | 0.02 | 100 | 1017.2 |
| 20260905114550 | 71 | 8 | 0.0 | 0.0 | 0.00 | 0.02 | 0.02 | 100 | 1017.2 |
| 20260905114448 | 71 | 8 | 0.0 | 0.0 | 0.00 | 0.02 | 0.02 | 100 | 1017.2 |
| 20260905114341 | 71 | 8 | 0.0 | 0.0 | 0.00 | 0.02 | 0.02 | 100 | 1017.2 |
| 20260905114242 | 71 | 8 | 0.0 | 0.0 | 0.00 | 0.02 | 0.02 | 100 | 1017.3 |
| 20260905114042 | 71 | 8 | 0.0 | 0.0 | 0.00 | 0.02 | 0.02 | 100 | 1017.3 |
| 20260905113942 | 71 | 8 | 0.0 | 0.0 | 0.00 | 0.02 | 0.02 | 100 | 1017.3 |
| 20260905113841 | 71 | 8 | 0.0 | 0.9 | 0.00 | 0.02 | 0.02 | 100 | 1017.4 |
| 20260905113740 | 71 | 8 | 0.0 | 0.9 | 0.00 | 0.02 | 0.02 | 100 | 1017.4 |
| 20260905113641 | 70 | 8 | 0.0 | 0.9 | 0.00 | 0.02 | 0.02 | 100 | 1017.3 |
| 20260905113538 | 70 | 8 | 0.0 | 0.9 | 0.00 | 0.02 | 0.02 | 100 | 1017.3 |
| 20260905113436 | 70 | 8 | 0.0 | 0.9 | 0.00 | 0.02 | 0.02 | 100 | 1017.4 |
| 20260905113335 | 70 | 8 | 0.0 | 0.9 | 0.00 | 0.02 | 0.02 | 100 | 1017.3 |
| 20260905113234 | 70 | 8 | 0.0 | 0.9 | 0.00 | 0.02 | 0.02 | 100 | 1017.4 |
| 20260905113134 | 70 | 8 | 0.0 | 0.9 | 0.00 | 0.02 | 0.02 | 100 | 1017.4 |
| 20260905113031 | 70 | 8 | 0.0 | 0.9 | 0.00 | 0.02 | 0.02 | 100 | 1017.4 |
| 20260905112930 | 70 | 8 | 0.0 | 0.9 | 0.00 | 0.02 | 0.02 | 100 | 1017.3 |
| 20260905112825 | 70 | 48 | 0.0 | 0.0 | 0.00 | 0.02 | 0.02 | 100 | 1017.4 |
| 20260905112725 | 70 | 48 | 0.0 | 0.0 | 0.00 | 0.02 | 0.02 | 100 | 1017.3 |
| 20260905112624 | 70 | 48 | 0.0 | 0.0 | 0.00 | 0.02 | 0.02 | 100 | 1017.3 |
| 20260905112523 | 70 | 48 | 0.0 | 0.0 | 0.00 | 0.02 | 0.02 | 100 | 1017.2 |
| 20260905112424 | 70 | 48 | 0.0 | 0.0 | 0.00 | 0.02 | 0.02 | 100 | 1017.2 |
| 20260905112317 | 70 | 48 | 0.0 | 0.0 | 0.00 | 0.02 | 0.02 | 100 | 1017.2 |
| 20260905112218 | 70 | 48 | 0.0 | 0.0 | 0.00 | 0.02 | 0.02 | 100 | 1017.2 |
| 20260905112018 | 70 | 48 | 0.0 | 0.0 | 0.00 | 0.02 | 0.02 | 100 | 1017.2 |
| 20260905111917 | 70 | 48 | 0.0 | 0.0 | 0.00 | 0.02 | 0.02 | 100 | 1017.2 |
| 20260905111813 | 70 | 50 | 0.0 | 0.0 | 0.00 | 0.02 | 0.02 | 100 | 1017.0 |
| 20260905111711 | 70 | 51 | 0.0 | 0.0 | 0.00 | 0.02 | 0.02 | 100 | 1017.2 |
| 20260905111612 | 70 | 51 | 0.0 | 0.0 | 0.00 | 0.02 | 0.02 | 100 | 1017.2 |
| 20260905111512 | 70 | 51 | 0.0 | 0.0 | 0.00 | 0.02 | 0.02 | 100 | 1017.2 |
| 20260905111411 | 70 | 50 | 0.0 | 0.0 | 0.00 | 0.02 | 0.02 | 100 | 1017.3 |
| 20260905111307 | 70 | 51 | 0.0 | 0.0 | 0.00 | 0.02 | 0.02 | 100 | 1017.2 |
| 20260905111206 | 70 | 51 | 0.0 | 0.0 | 0.00 | 0.02 | 0.02 | 100 | 1017.2 |
| 20260905111105 | 70 | 51 | 0.0 | 0.0 | 0.00 | 0.02 | 0.02 | 100 | 1017.3 |
| 20260905111006 | 70 | 50 | 0.0 | 0.0 | 0.00 | 0.02 | 0.02 | 100 | 1017.2 |
| 20260905110906 | 70 | 50 | 0.0 | 0.0 | 0.00 | 0.02 | 0.02 | 100 | 1017.2 |
| 20260905110801 | 70 | 50 | 0.0 | 0.0 | 0.00 | 0.02 | 0.02 | 100 | 1017.2 |
| 20260905110700 | 70 | 50 | 0.0 | 0.0 | 0.00 | 0.02 | 0.02 | 100 | 1017.2 |
| 20260905110559 | 70 | 50 | 0.0 | 0.0 | 0.00 | 0.02 | 0.02 | 100 | 1017.2 |
| 20260905110501 | 70 | 50 | 0.0 | 0.0 | 0.00 | 0.02 | 0.02 | 100 | 1017.2 |
| 20260905110400 | 70 | 50 | 0.0 | 0.0 | 0.00 | 0.02 | 0.02 | 100 | 1017.2 |
| 20260905110300 | 70 | 50 | 0.0 | 0.0 | 0.00 | 0.02 | 0.02 | 100 | 1017.2 |
| 20260905110157 | 70 | 50 | 0.0 | 0.0 | 0.00 | 0.02 | 0.02 | 100 | 1017.2 |
| 20260905110058 | 70 | 50 | 0.0 | 0.0 | 0.00 | 0.02 | 0.02 | 100 | 1017.0 |
| 20260905105956 | 70 | 50 | 0.0 | 0.0 | 0.00 | 0.02 | 0.02 | 100 | 1017.2 |
| 20260905105854 | 70 | 50 | 0.0 | 0.0 | 0.00 | 0.02 | 0.02 | 100 | 1017.0 |
| 20260905105749 | 70 | 50 | 0.0 | 0.0 | 0.00 | 0.02 | 0.02 | 100 | 1017.2 |